Wetterdaten: Freitag, 30.04.2021
Datum Zeit Temp. Aussen Temp. o. S. Temp +5cm Feuchte Auss Luftdruck Regen Sonnenschein Regendauer Solar Windben Empfang
30.04.2021 00:00 7,2 C 6,7 C 4,5 C 81 % 1011,5 hPa 0,0 l/m 0 min 0 min 0 W/m 12,9 km/h (3 Bft) 97,87 %
30.04.2021 00:02 7,2 C 6,7 C 4,5 C 81 % 1011,4 hPa 0,0 l/m 0 min 0 min 0 W/m 12,9 km/h (3 Bft) 97,30 %
30.04.2021 00:04 7,1 C 6,7 C 4,5 C 81 % 1011,4 hPa 0,0 l/m 0 min 0 min 0 W/m 12,9 km/h (3 Bft) 97,83 %
30.04.2021 00:08 7,1 C 6,7 C 4,5 C 81 % 1011,4 hPa 0,0 l/m 0 min 0 min 0 W/m 16,1 km/h (3 Bft) 96,81 %
30.04.2021 00:10 7,1 C 6,7 C 4,5 C 81 % 1011,4 hPa 0,0 l/m 0 min 0 min 0 W/m 12,9 km/h (3 Bft) 97,87 %
30.04.2021 00:12 7,1 C 6,7 C 4,5 C 81 % 1011,5 hPa 0,0 l/m 0 min 0 min 0 W/m 12,9 km/h (3 Bft) 97,87 %
30.04.2021 00:14 7,1 C 6,7 C 4,5 C 81 % 1011,5 hPa 0,0 l/m 0 min 0 min 0 W/m 16,1 km/h (3 Bft) 97,87 %
30.04.2021 00:16 7,0 C 6,7 C 4,5 C 81 % 1011,5 hPa 0,0 l/m 0 min 0 min 0 W/m 6,4 km/h (2 Bft) 97,83 %
30.04.2021 00:18 7,0 C 6,7 C 4,5 C 81 % 1011,5 hPa 0,0 l/m 0 min 0 min 0 W/m 16,1 km/h (3 Bft) 93,62 %
30.04.2021 00:20 7,0 C 6,7 C 4,5 C 81 % 1011,5 hPa 0,0 l/m 0 min 0 min 0 W/m 9,7 km/h (2 Bft) 97,87 %
30.04.2021 00:22 7,0 C 6,7 C 4,5 C 81 % 1011,5 hPa 0,0 l/m 0 min 0 min 0 W/m 6,4 km/h (2 Bft) 97,87 %
30.04.2021 00:24 7,0 C 6,7 C 4,5 C 81 % 1011,6 hPa 0,0 l/m 0 min 0 min 0 W/m 9,7 km/h (2 Bft) 97,87 %
30.04.2021 00:26 7,0 C 6,7 C 4,5 C 81 % 1011,5 hPa 0,0 l/m 0 min 0 min 0 W/m 12,9 km/h (3 Bft) 95,74 %
30.04.2021 00:28 7,0 C 6,7 C 4,5 C 81 % 1011,6 hPa 0,0 l/m 0 min 0 min 0 W/m 12,9 km/h (3 Bft) 97,83 %
30.04.2021 00:30 7,0 C 6,1 C 4,5 C 81 % 1011,6 hPa 0,0 l/m 0 min 0 min 0 W/m 19,3 km/h (3 Bft) 97,87 %
30.04.2021 00:32 7,0 C 6,1 C 4,5 C 81 % 1011,6 hPa 0,0 l/m 0 min 0 min 0 W/m 12,9 km/h (3 Bft) 93,62 %
30.04.2021 00:34 6,9 C 6,1 C 4,5 C 81 % 1011,5 hPa 0,0 l/m 0 min 0 min 0 W/m 9,7 km/h (2 Bft) 93,62 %
30.04.2021 00:36 6,9 C 6,1 C 4,5 C 82 % 1011,6 hPa 0,0 l/m 0 min 0 min 0 W/m 6,4 km/h (2 Bft) 93,62 %
30.04.2021 00:38 6,9 C 6,1 C 3,9 C 81 % 1011,6 hPa 0,0 l/m 0 min 0 min 0 W/m 12,9 km/h (3 Bft) 100,00 %
30.04.2021 00:40 6,9 C 6,1 C 3,9 C 81 % 1011,6 hPa 0,0 l/m 0 min 0 min 0 W/m 9,7 km/h (2 Bft) 100,00 %
30.04.2021 00:42 6,8 C 6,1 C 3,9 C 81 % 1011,7 hPa 0,0 l/m 0 min 0 min 0 W/m 6,4 km/h (2 Bft) 95,74 %
30.04.2021 00:44 6,8 C 6,1 C 3,9 C 82 % 1011,8 hPa 0,0 l/m 0 min 0 min 0 W/m 12,9 km/h (3 Bft) 100,00 %
30.04.2021 00:46 6,8 C 6,1 C 3,9 C 82 % 1011,7 hPa 0,0 l/m 0 min 0 min 0 W/m 12,9 km/h (3 Bft) 95,74 %
30.04.2021 00:48 6,7 C 6,1 C 3,9 C 82 % 1011,8 hPa 0,0 l/m 0 min 0 min 0 W/m 6,4 km/h (2 Bft) 97,87 %
30.04.2021 00:50 6,7 C 6,1 C 3,9 C 82 % 1011,7 hPa 0,0 l/m 0 min 0 min 0 W/m 12,9 km/h (3 Bft) 97,83 %
30.04.2021 00:52 6,6 C 6,1 C 3,9 C 82 % 1011,7 hPa 0,0 l/m 0 min 0 min 0 W/m 12,9 km/h (3 Bft) 97,87 %
30.04.2021 00:54 6,6 C 6,1 C 3,9 C 82 % 1011,7 hPa 0,0 l/m 0 min 0 min 0 W/m 12,9 km/h (3 Bft) 95,74 %
30.04.2021 00:56 6,6 C 6,1 C 3,9 C 82 % 1011,8 hPa 0,0 l/m 0 min 0 min 0 W/m 6,4 km/h (2 Bft) 97,87 %
30.04.2021 00:58 6,5 C 6,1 C 3,9 C 82 % 1011,8 hPa 0,0 l/m 0 min 0 min 0 W/m 16,1 km/h (3 Bft) 95,74 %
30.04.2021 01:00 6,5 C 5,6 C 3,9 C 82 % 1011,7 hPa 0,0 l/m 0 min 0 min 0 W/m 6,4 km/h (2 Bft) 95,74 %
30.04.2021 01:02 6,5 C 5,6 C 3,9 C 82 % 1011,8 hPa 0,0 l/m 0 min 0 min 0 W/m 6,4 km/h (2 Bft) 95,65 %
30.04.2021 01:04 6,5 C 5,6 C 3,9 C 82 % 1011,7 hPa 0,0 l/m 0 min 0 min 0 W/m 12,9 km/h (3 Bft) 95,74 %
30.04.2021 01:06 6,4 C 5,6 C 3,9 C 82 % 1011,7 hPa 0,0 l/m 0 min 0 min 0 W/m 12,9 km/h (3 Bft) 95,74 %
30.04.2021 01:08 6,4 C 5,6 C 3,9 C 83 % 1011,7 hPa 0,0 l/m 0 min 0 min 0 W/m 16,1 km/h (3 Bft) 93,62 %
30.04.2021 01:10 6,4 C 5,6 C 3,9 C 83 % 1011,8 hPa 0,0 l/m 0 min 0 min 0 W/m 12,9 km/h (3 Bft) 95,74 %
30.04.2021 01:12 6,4 C 5,6 C 3,9 C 83 % 1011,7 hPa 0,0 l/m 0 min 0 min 0 W/m 9,7 km/h (2 Bft) 95,74 %
30.04.2021 01:14 6,4 C 5,6 C 3,9 C 83 % 1011,7 hPa 0,0 l/m 0 min 0 min 0 W/m 12,9 km/h (3 Bft) 93,48 %
30.04.2021 01:16 6,3 C 5,6 C 3,9 C 83 % 1011,8 hPa 0,0 l/m 0 min 0 min 0 W/m 16,1 km/h (3 Bft) 95,74 %
30.04.2021 01:18 6,3 C 5,6 C 3,9 C 83 % 1011,7 hPa 0,0 l/m 0 min 0 min 0 W/m 16,1 km/h (3 Bft) 93,62 %
30.04.2021 01:20 6,3 C 5,6 C 3,9 C 83 % 1011,7 hPa 0,0 l/m 0 min 0 min 0 W/m 12,9 km/h (3 Bft) 95,74 %
30.04.2021 01:22 6,3 C 5,6 C 3,4 C 83 % 1011,7 hPa 0,0 l/m 0 min 0 min 0 W/m 9,7 km/h (2 Bft) 93,62 %
30.04.2021 01:24 6,2 C 5,6 C 3,4 C 84 % 1011,8 hPa 0,0 l/m 0 min 0 min 0 W/m 6,4 km/h (2 Bft) 93,62 %
30.04.2021 01:26 6,2 C 5,6 C 3,4 C 84 % 1011,8 hPa 0,0 l/m 0 min 0 min 0 W/m 12,9 km/h (3 Bft) 95,65 %
30.04.2021 01:28 6,2 C 5,6 C 3,4 C 84 % 1011,8 hPa 0,0 l/m 0 min 0 min 0 W/m 6,4 km/h (2 Bft) 95,74 %
30.04.2021 01:30 6,2 C 5,6 C 3,4 C 84 % 1011,7 hPa 0,0 l/m 0 min 0 min 0 W/m 6,4 km/h (2 Bft) 97,87 %
30.04.2021 01:32 6,2 C 5,6 C 3,4 C 84 % 1011,7 hPa 0,0 l/m 0 min 0 min 0 W/m 9,7 km/h (2 Bft) 91,49 %
30.04.2021 01:34 6,1 C 5,6 C 3,4 C 84 % 1011,8 hPa 0,0 l/m 0 min 0 min 0 W/m 12,9 km/h (3 Bft) 97,87 %
30.04.2021 01:36 6,1 C 5,6 C 3,4 C 84 % 1011,8 hPa 0,0 l/m 0 min 0 min 0 W/m 12,9 km/h (3 Bft) 93,62 %
30.04.2021 01:38 6,1 C 5,6 C 3,4 C 84 % 1011,8 hPa 0,0 l/m 0 min 0 min 0 W/m 12,9 km/h (3 Bft) 97,83 %
30.04.2021 01:40 6,1 C 5,6 C 3,4 C 84 % 1011,8 hPa 0,0 l/m 0 min 0 min 0 W/m 16,1 km/h (3 Bft) 97,87 %
30.04.2021 01:42 6,1 C 5,6 C 3,4 C 84 % 1011,8 hPa 0,0 l/m 0 min 0 min 0 W/m 16,1 km/h (3 Bft) 95,74 %
30.04.2021 01:44 6,1 C 5,6 C 3,9 C 84 % 1011,8 hPa 0,0 l/m 0 min 0 min 0 W/m 3,2 km/h (1 Bft) 95,74 %
30.04.2021 01:46 6,1 C 5,6 C 3,9 C 84 % 1011,8 hPa 0,0 l/m 0 min 0 min 0 W/m 12,9 km/h (3 Bft) 95,74 %
30.04.2021 01:48 6,1 C 5,6 C 3,9 C 84 % 1011,8 hPa 0,0 l/m 0 min 0 min 0 W/m 6,4 km/h (2 Bft) 97,87 %
30.04.2021 01:50 6,1 C 5,6 C 3,9 C 85 % 1011,9 hPa 0,0 l/m 0 min 0 min 0 W/m 12,9 km/h (3 Bft) 97,83 %
30.04.2021 01:52 6,1 C 5,6 C 3,9 C 85 % 1011,8 hPa 0,0 l/m 0 min 0 min 0 W/m 16,1 km/h (3 Bft) 97,87 %
30.04.2021 01:54 6,2 C 5,6 C 3,9 C 85 % 1011,8 hPa 0,0 l/m 0 min 0 min 0 W/m 6,4 km/h (2 Bft) 97,87 %
30.04.2021 01:56 6,2 C 5,6 C 3,9 C 85 % 1011,8 hPa 0,0 l/m 0 min 0 min 0 W/m 6,4 km/h (2 Bft) 95,74 %
30.04.2021 01:58 6,3 C 5,6 C 3,9 C 84 % 1011,9 hPa 0,0 l/m 0 min 0 min 0 W/m 6,4 km/h (2 Bft) 97,87 %
30.04.2021 02:00 6,3 C 5,6 C 3,9 C 84 % 1011,8 hPa 0,0 l/m 0 min 0 min 0 W/m 16,1 km/h (3 Bft) 97,87 %
30.04.2021 02:02 6,3 C 5,6 C 3,9 C 84 % 1011,8 hPa 0,0 l/m 0 min 0 min 0 W/m 6,4 km/h (2 Bft) 93,48 %
30.04.2021 02:04 6,3 C 5,6 C 3,9 C 84 % 1011,8 hPa 0,0 l/m 0 min 0 min 0 W/m 6,4 km/h (2 Bft) 95,74 %
30.04.2021 02:06 6,3 C 5,6 C 3,9 C 84 % 1011,8 hPa 0,0 l/m 0 min 0 min 0 W/m 9,7 km/h (2 Bft) 93,62 %
30.04.2021 02:08 6,3 C 5,6 C 3,9 C 84 % 1011,8 hPa 0,0 l/m 0 min 0 min 0 W/m 16,1 km/h (3 Bft) 97,87 %
30.04.2021 02:10 6,3 C 5,6 C 3,9 C 85 % 1011,8 hPa 0,0 l/m 0 min 0 min 0 W/m 12,9 km/h (3 Bft) 97,87 %
30.04.2021 02:12 6,3 C 5,6 C 3,9 C 85 % 1011,8 hPa 0,0 l/m 0 min 0 min 0 W/m 12,9 km/h (3 Bft) 97,87 %
30.04.2021 02:14 6,3 C 5,6 C 3,9 C 85 % 1011,8 hPa 0,0 l/m 0 min 0 min 0 W/m 6,4 km/h (2 Bft) 97,83 %
30.04.2021 02:16 6,3 C 5,6 C 3,9 C 85 % 1011,8 hPa 0,0 l/m 0 min 0 min 0 W/m 6,4 km/h (2 Bft) 97,87 %
30.04.2021 02:18 6,3 C 5,6 C 3,9 C 85 % 1011,7 hPa 0,0 l/m 0 min 0 min 0 W/m 6,4 km/h (2 Bft) 95,74 %
30.04.2021 02:20 6,3 C 5,6 C 3,9 C 85 % 1011,7 hPa 0,0 l/m 0 min 0 min 0 W/m 6,4 km/h (2 Bft) 97,87 %
30.04.2021 02:22 6,3 C 6,1 C 3,9 C 85 % 1011,7 hPa 0,0 l/m 0 min 0 min 0 W/m 3,2 km/h (1 Bft) 97,87 %
30.04.2021 02:24 6,3 C 6,1 C 3,9 C 85 % 1011,7 hPa 0,0 l/m 0 min 0 min 0 W/m 6,4 km/h (2 Bft) 97,87 %
30.04.2021 02:26 6,4 C 6,1 C 3,9 C 85 % 1011,8 hPa 0,0 l/m 0 min 0 min 0 W/m 6,4 km/h (2 Bft) 97,83 %
30.04.2021 02:28 6,3 C 6,1 C 3,9 C 84 % 1011,8 hPa 0,0 l/m 0 min 0 min 0 W/m 6,4 km/h (2 Bft) 97,87 %
30.04.2021 02:30 6,4 C 6,1 C 3,9 C 85 % 1011,8 hPa 0,0 l/m 0 min 0 min 0 W/m 3,2 km/h (1 Bft) 95,74 %
30.04.2021 02:32 6,4 C 6,1 C 3,9 C 85 % 1011,8 hPa 0,0 l/m 0 min 0 min 0 W/m 6,4 km/h (2 Bft) 100,00 %
30.04.2021 02:34 6,4 C 6,1 C 3,9 C 84 % 1011,8 hPa 0,0 l/m 0 min 0 min 0 W/m 6,4 km/h (2 Bft) 100,00 %
30.04.2021 02:36 6,4 C 6,1 C 3,9 C 84 % 1011,8 hPa 0,0 l/m 0 min 0 min 0 W/m 12,9 km/h (3 Bft) 100,00 %
30.04.2021 02:38 6,4 C 6,1 C 3,9 C 84 % 1011,9 hPa 0,0 l/m 0 min 0 min 0 W/m 9,7 km/h (2 Bft) 100,00 %
30.04.2021 02:40 6,4 C 6,1 C 3,9 C 84 % 1011,9 hPa 0,0 l/m 0 min 0 min 0 W/m 12,9 km/h (3 Bft) 100,00 %
30.04.2021 02:42 6,4 C 6,1 C 3,9 C 84 % 1011,8 hPa 0,0 l/m 0 min 0 min 0 W/m 12,9 km/h (3 Bft) 100,00 %
30.04.2021 02:44 6,4 C 6,1 C 3,9 C 84 % 1011,9 hPa 0,0 l/m 0 min 0 min 0 W/m 6,4 km/h (2 Bft) 100,00 %
30.04.2021 02:46 6,4 C 6,1 C 3,9 C 85 % 1011,9 hPa 0,0 l/m 0 min 0 min 0 W/m 3,2 km/h (1 Bft) 97,87 %
30.04.2021 02:48 6,4 C 6,1 C 3,9 C 85 % 1011,9 hPa 0,0 l/m 0 min 0 min 0 W/m 6,4 km/h (2 Bft) 100,00 %
30.04.2021 02:50 6,4 C 6,1 C 3,9 C 84 % 1011,9 hPa 0,0 l/m 0 min 0 min 0 W/m 12,9 km/h (3 Bft) 100,00 %
30.04.2021 02:52 6,4 C 6,1 C 3,9 C 84 % 1011,9 hPa 0,0 l/m 0 min 0 min 0 W/m 9,7 km/h (2 Bft) 95,74 %
30.04.2021 02:54 6,4 C 6,1 C 3,9 C 84 % 1012,0 hPa 0,0 l/m 0 min 0 min 0 W/m 16,1 km/h (3 Bft) 97,87 %
30.04.2021 02:56 6,4 C 6,1 C 3,9 C 84 % 1012,0 hPa 0,0 l/m 0 min 0 min 0 W/m 9,7 km/h (2 Bft) 95,74 %
30.04.2021 02:58 6,4 C 6,1 C 3,9 C 85 % 1012,0 hPa 0,0 l/m 0 min 0 min 0 W/m 6,4 km/h (2 Bft) 97,87 %
30.04.2021 03:00 6,4 C 6,1 C 3,9 C 85 % 1011,9 hPa 0,0 l/m 0 min 0 min 0 W/m 6,4 km/h (2 Bft) 97,83 %
30.04.2021 03:02 6,4 C 6,1 C 3,9 C 84 % 1011,9 hPa 0,0 l/m 0 min 0 min 0 W/m 6,4 km/h (2 Bft) 97,87 %
30.04.2021 03:04 6,4 C 6,1 C 3,9 C 84 % 1011,9 hPa 0,0 l/m 0 min 0 min 0 W/m 6,4 km/h (2 Bft) 97,87 %
30.04.2021 03:06 6,4 C 6,1 C 3,9 C 84 % 1011,9 hPa 0,0 l/m 0 min 0 min 0 W/m 6,4 km/h (2 Bft) 97,87 %
30.04.2021 03:08 6,4 C 6,1 C 3,9 C 85 % 1011,9 hPa 0,0 l/m 0 min 0 min 0 W/m 6,4 km/h (2 Bft) 97,87 %
30.04.2021 03:10 6,4 C 6,1 C 3,9 C 84 % 1011,9 hPa 0,0 l/m 0 min 0 min 0 W/m 6,4 km/h (2 Bft) 95,74 %
30.04.2021 03:12 6,4 C 6,1 C 3,9 C 85 % 1011,9 hPa 0,0 l/m 0 min 0 min 0 W/m 6,4 km/h (2 Bft) 95,65 %
30.04.2021 03:14 6,4 C 6,1 C 3,9 C 85 % 1012,0 hPa 0,0 l/m 0 min 0 min 0 W/m 9,7 km/h (2 Bft) 95,74 %
30.04.2021 03:16 6,4 C 6,1 C 3,9 C 84 % 1011,9 hPa 0,0 l/m 0 min 0 min 0 W/m 12,9 km/h (3 Bft) 97,87 %
30.04.2021 03:18 6,4 C 6,1 C 3,9 C 84 % 1012,0 hPa 0,0 l/m 0 min 0 min 0 W/m 6,4 km/h (2 Bft) 97,87 %
30.04.2021 03:20 6,4 C 6,1 C 3,9 C 85 % 1012,1 hPa 0,0 l/m 0 min 0 min 0 W/m 6,4 km/h (2 Bft) 95,74 %
30.04.2021 03:22 6,4 C 6,1 C 3,9 C 85 % 1012,0 hPa 0,0 l/m 0 min 0 min 0 W/m 6,4 km/h (2 Bft) 97,87 %
30.04.2021 03:24 6,4 C 6,1 C 3,9 C 85 % 1012,0 hPa 0,0 l/m 0 min 0 min 0 W/m 6,4 km/h (2 Bft) 97,83 %
30.04.2021 03:26 6,4 C 6,1 C 3,9 C 85 % 1012,0 hPa 0,0 l/m 0 min 0 min 0 W/m 6,4 km/h (2 Bft) 95,74 %
30.04.2021 03:28 6,4 C 6,1 C 3,9 C 85 % 1012,1 hPa 0,0 l/m 0 min 0 min 0 W/m 6,4 km/h (2 Bft) 93,62 %
30.04.2021 03:30 6,4 C 6,1 C 3,9 C 85 % 1012,1 hPa 0,0 l/m 0 min 0 min 0 W/m 3,2 km/h (1 Bft) 93,62 %
30.04.2021 03:32 6,4 C 6,1 C 3,9 C 85 % 1012,1 hPa 0,0 l/m 0 min 0 min 0 W/m 9,7 km/h (2 Bft) 93,62 %
30.04.2021 03:34 6,4 C 6,1 C 3,9 C 85 % 1012,1 hPa 0,0 l/m 0 min 0 min 0 W/m 6,4 km/h (2 Bft) 95,74 %
30.04.2021 03:36 6,4 C 6,1 C 3,9 C 85 % 1012,1 hPa 0,0 l/m 0 min 0 min 0 W/m 6,4 km/h (2 Bft) 95,65 %
30.04.2021 03:38 6,4 C 6,1 C 3,9 C 85 % 1012,2 hPa 0,0 l/m 0 min 0 min 0 W/m 6,4 km/h (2 Bft) 95,74 %
30.04.2021 03:40 6,4 C 6,1 C 3,9 C 85 % 1012,2 hPa 0,0 l/m 0 min 0 min 0 W/m 6,4 km/h (2 Bft) 95,74 %
30.04.2021 03:42 6,4 C 6,1 C 3,9 C 85 % 1012,1 hPa 0,0 l/m 0 min 0 min 0 W/m 16,1 km/h (3 Bft) 95,74 %
30.04.2021 03:44 6,4 C 6,1 C 3,9 C 85 % 1012,2 hPa 0,0 l/m 0 min 0 min 0 W/m 6,4 km/h (2 Bft) 95,74 %
30.04.2021 03:46 6,4 C 6,1 C 3,9 C 85 % 1012,2 hPa 0,0 l/m 0 min 0 min 0 W/m 6,4 km/h (2 Bft) 95,74 %
30.04.2021 03:48 6,4 C 6,1 C 3,9 C 85 % 1012,2 hPa 0,0 l/m 0 min 0 min 0 W/m 12,9 km/h (3 Bft) 97,83 %
30.04.2021 03:50 6,4 C 6,1 C 3,9 C 85 % 1012,2 hPa 0,0 l/m 0 min 0 min 0 W/m 9,7 km/h (2 Bft) 97,87 %
30.04.2021 03:52 6,4 C 6,1 C 3,9 C 85 % 1012,2 hPa 0,0 l/m 0 min 0 min 0 W/m 3,2 km/h (1 Bft) 97,87 %
30.04.2021 03:54 6,4 C 6,1 C 3,9 C 85 % 1012,2 hPa 0,0 l/m 0 min 0 min 0 W/m 6,4 km/h (2 Bft) 95,74 %
30.04.2021 03:56 6,4 C 6,1 C 3,9 C 85 % 1012,2 hPa 0,0 l/m 0 min 0 min 0 W/m 16,1 km/h (3 Bft) 97,87 %
30.04.2021 03:58 6,4 C 6,1 C 3,9 C 85 % 1012,3 hPa 0,0 l/m 0 min 0 min 0 W/m 12,9 km/h (3 Bft) 95,74 %
30.04.2021 04:00 6,4 C 6,1 C 3,9 C 85 % 1012,3 hPa 0,0 l/m 0 min 0 min 0 W/m 12,9 km/h (3 Bft) 95,65 %
30.04.2021 04:05 6,4 C 6,1 C 3,9 C 85 % 1012,3 hPa 0,0 l/m 0 min 0 min 0 W/m 9,7 km/h (2 Bft) 98,25 %
30.04.2021 04:06 6,4 C 5,6 C 3,9 C 85 % 1012,3 hPa 0,0 l/m 0 min 0 min 0 W/m 12,9 km/h (3 Bft) 95,83 %
30.04.2021 04:08 6,4 C 5,6 C 3,9 C 85 % 1012,3 hPa 0,0 l/m 0 min 0 min 0 W/m 6,4 km/h (2 Bft) 97,87 %
30.04.2021 04:10 6,3 C 5,6 C 3,9 C 86 % 1012,3 hPa 0,0 l/m 0 min 0 min 0 W/m 16,1 km/h (3 Bft) 100,00 %
30.04.2021 04:12 6,3 C 5,6 C 3,9 C 86 % 1012,3 hPa 0,0 l/m 0 min 0 min 0 W/m 9,7 km/h (2 Bft) 100,00 %
30.04.2021 04:14 6,3 C 5,6 C 3,9 C 86 % 1012,3 hPa 0,0 l/m 0 min 0 min 0 W/m 9,7 km/h (2 Bft) 100,00 %
30.04.2021 04:16 6,3 C 5,6 C 3,9 C 86 % 1012,3 hPa 0,0 l/m 0 min 0 min 0 W/m 12,9 km/h (3 Bft) 100,00 %
30.04.2021 04:18 6,3 C 5,6 C 3,9 C 86 % 1012,3 hPa 0,0 l/m 0 min 0 min 0 W/m 6,4 km/h (2 Bft) 100,00 %
30.04.2021 04:20 6,3 C 5,6 C 3,9 C 87 % 1012,3 hPa 0,0 l/m 0 min 0 min 0 W/m 6,4 km/h (2 Bft) 100,00 %
30.04.2021 04:22 6,3 C 5,6 C 3,9 C 87 % 1012,3 hPa 0,0 l/m 0 min 0 min 0 W/m 12,9 km/h (3 Bft) 95,74 %
30.04.2021 04:24 6,2 C 5,6 C 3,4 C 87 % 1012,3 hPa 0,0 l/m 0 min 0 min 0 W/m 6,4 km/h (2 Bft) 100,00 %
30.04.2021 04:26 6,2 C 5,6 C 3,4 C 87 % 1012,3 hPa 0,0 l/m 0 min 2 min 0 W/m 6,4 km/h (2 Bft) 100,00 %
30.04.2021 04:28 6,1 C 5,6 C 3,4 C 88 % 1012,3 hPa 0,0 l/m 0 min 2 min 0 W/m 6,4 km/h (2 Bft) 100,00 %
30.04.2021 04:30 6,1 C 5,6 C 3,4 C 88 % 1012,2 hPa 0,0 l/m 0 min 2 min 0 W/m 6,4 km/h (2 Bft) 97,87 %
30.04.2021 04:32 6,1 C 5,6 C 3,4 C 88 % 1012,3 hPa 0,0 l/m 0 min 2 min 0 W/m 6,4 km/h (2 Bft) 100,00 %
30.04.2021 04:34 6,0 C 5,6 C 3,4 C 89 % 1012,2 hPa 0,0 l/m 0 min 2 min 0 W/m 12,9 km/h (3 Bft) 100,00 %
30.04.2021 04:36 6,0 C 5,0 C 2,8 C 89 % 1012,2 hPa 0,0 l/m 0 min 2 min 0 W/m 12,9 km/h (3 Bft) 100,00 %
30.04.2021 04:38 5,9 C 5,0 C 2,8 C 89 % 1012,2 hPa 0,0 l/m 0 min 2 min 0 W/m 6,4 km/h (2 Bft) 97,87 %
30.04.2021 04:40 5,9 C 5,0 C 2,8 C 90 % 1012,2 hPa 0,0 l/m 0 min 2 min 0 W/m 9,7 km/h (2 Bft) 100,00 %
30.04.2021 04:42 5,9 C 5,0 C 2,8 C 90 % 1012,2 hPa 0,0 l/m 0 min 2 min 0 W/m 12,9 km/h (3 Bft) 100,00 %
30.04.2021 04:44 5,9 C 5,0 C 2,8 C 90 % 1012,2 hPa 0,0 l/m 0 min 0 min 0 W/m 6,4 km/h (2 Bft) 100,00 %
30.04.2021 04:46 5,8 C 5,0 C 2,8 C 90 % 1012,2 hPa 0,2 l/m 0 min 2 min 0 W/m 6,4 km/h (2 Bft) 100,00 %
30.04.2021 04:48 5,8 C 5,0 C 2,8 C 90 % 1012,2 hPa 0,0 l/m 0 min 2 min 0 W/m 6,4 km/h (2 Bft) 97,87 %
30.04.2021 04:50 5,7 C 5,0 C 2,8 C 90 % 1012,2 hPa 0,0 l/m 0 min 2 min 0 W/m 6,4 km/h (2 Bft) 100,00 %
30.04.2021 04:52 5,7 C 5,0 C 2,8 C 91 % 1012,2 hPa 0,0 l/m 0 min 2 min 0 W/m 6,4 km/h (2 Bft) 100,00 %
30.04.2021 04:54 5,6 C 5,0 C 2,8 C 91 % 1012,2 hPa 0,0 l/m 0 min 0 min 0 W/m 16,1 km/h (3 Bft) 100,00 %
30.04.2021 04:56 5,6 C 5,0 C 2,8 C 91 % 1012,2 hPa 0,0 l/m 0 min 2 min 0 W/m 6,4 km/h (2 Bft) 97,87 %
30.04.2021 04:58 5,6 C 5,0 C 2,8 C 91 % 1012,2 hPa 0,0 l/m 0 min 2 min 0 W/m 6,4 km/h (2 Bft) 100,00 %
30.04.2021 05:00 5,5 C 5,0 C 2,8 C 91 % 1012,2 hPa 0,0 l/m 0 min 2 min 0 W/m 3,2 km/h (1 Bft) 100,00 %
30.04.2021 05:02 5,5 C 5,0 C 2,8 C 91 % 1012,2 hPa 0,0 l/m 0 min 2 min 0 W/m 12,9 km/h (3 Bft) 100,00 %
30.04.2021 05:04 5,5 C 5,0 C 2,8 C 91 % 1012,2 hPa 0,0 l/m 0 min 0 min 0 W/m 6,4 km/h (2 Bft) 97,87 %
30.04.2021 05:06 5,5 C 5,0 C 2,8 C 91 % 1012,2 hPa 0,0 l/m 0 min 0 min 0 W/m 9,7 km/h (2 Bft) 100,00 %
30.04.2021 05:08 5,5 C 5,0 C 2,8 C 92 % 1012,2 hPa 0,0 l/m 0 min 0 min 0 W/m 12,9 km/h (3 Bft) 100,00 %
30.04.2021 05:10 5,5 C 5,0 C 2,8 C 92 % 1012,3 hPa 0,0 l/m 0 min 0 min 0 W/m 6,4 km/h (2 Bft) 100,00 %
30.04.2021 05:12 5,5 C 5,0 C 2,8 C 92 % 1012,2 hPa 0,0 l/m 0 min 0 min 0 W/m 6,4 km/h (2 Bft) 100,00 %
30.04.2021 05:14 5,5 C 5,0 C 2,8 C 92 % 1012,2 hPa 0,0 l/m 0 min 0 min 0 W/m 6,4 km/h (2 Bft) 100,00 %
30.04.2021 05:16 5,5 C 5,0 C 2,8 C 92 % 1012,3 hPa 0,0 l/m 0 min 0 min 0 W/m 3,2 km/h (1 Bft) 100,00 %
30.04.2021 05:18 5,5 C 5,0 C 2,8 C 92 % 1012,3 hPa 0,0 l/m 0 min 0 min 0 W/m 9,7 km/h (2 Bft) 100,00 %
30.04.2021 05:20 5,5 C 5,0 C 2,8 C 92 % 1012,2 hPa 0,0 l/m 0 min 0 min 0 W/m 6,4 km/h (2 Bft) 100,00 %
30.04.2021 05:22 5,5 C 5,0 C 2,8 C 92 % 1012,2 hPa 0,0 l/m 0 min 0 min 0 W/m 6,4 km/h (2 Bft) 100,00 %
30.04.2021 05:24 5,5 C 5,0 C 2,8 C 92 % 1012,2 hPa 0,0 l/m 0 min 0 min 0 W/m 6,4 km/h (2 Bft) 100,00 %
30.04.2021 05:26 5,4 C 5,0 C 2,8 C 93 % 1012,2 hPa 0,0 l/m 0 min 2 min 0 W/m 6,4 km/h (2 Bft) 97,87 %
30.04.2021 05:28 5,5 C 5,0 C 2,8 C 93 % 1012,1 hPa 0,0 l/m 0 min 0 min 0 W/m 6,4 km/h (2 Bft) 100,00 %
30.04.2021 05:30 5,5 C 5,0 C 2,8 C 93 % 1012,2 hPa 0,0 l/m 0 min 0 min 0 W/m 6,4 km/h (2 Bft) 100,00 %
30.04.2021 05:32 5,5 C 5,0 C 2,8 C 93 % 1012,2 hPa 0,0 l/m 0 min 0 min 0 W/m 3,2 km/h (1 Bft) 97,87 %
30.04.2021 05:34 5,5 C 5,0 C 2,8 C 93 % 1012,2 hPa 0,0 l/m 0 min 0 min 0 W/m 6,4 km/h (2 Bft) 100,00 %
30.04.2021 05:36 5,5 C 5,0 C 2,8 C 93 % 1012,2 hPa 0,0 l/m 0 min 0 min 0 W/m 6,4 km/h (2 Bft) 100,00 %
30.04.2021 05:38 5,5 C 5,0 C 2,8 C 93 % 1012,2 hPa 0,0 l/m 0 min 0 min 0 W/m 6,4 km/h (2 Bft) 100,00 %
30.04.2021 05:40 5,5 C 5,0 C 2,8 C 93 % 1012,2 hPa 0,0 l/m 0 min 0 min 0 W/m 6,4 km/h (2 Bft) 100,00 %
30.04.2021 05:42 5,5 C 5,0 C 2,8 C 93 % 1012,3 hPa 0,0 l/m 0 min 0 min 0 W/m 6,4 km/h (2 Bft) 97,87 %
30.04.2021 05:44 5,5 C 5,0 C 2,8 C 94 % 1012,3 hPa 0,0 l/m 0 min 0 min 0 W/m 3,2 km/h (1 Bft) 100,00 %
30.04.2021 05:46 5,5 C 5,0 C 2,8 C 94 % 1012,3 hPa 0,0 l/m 0 min 0 min 0 W/m 3,2 km/h (1 Bft) 97,83 %
30.04.2021 05:48 5,5 C 5,0 C 2,8 C 94 % 1012,3 hPa 0,0 l/m 0 min 0 min 0 W/m 6,4 km/h (2 Bft) 100,00 %
30.04.2021 05:50 5,5 C 5,0 C 2,8 C 94 % 1012,4 hPa 0,0 l/m 0 min 0 min 0 W/m 3,2 km/h (1 Bft) 100,00 %
30.04.2021 05:52 5,5 C 5,0 C 2,8 C 94 % 1012,4 hPa 0,0 l/m 0 min 0 min 0 W/m 3,2 km/h (1 Bft) 100,00 %
30.04.2021 05:54 5,5 C 5,0 C 2,8 C 94 % 1012,4 hPa 0,0 l/m 0 min 0 min 0 W/m 6,4 km/h (2 Bft) 100,00 %
30.04.2021 05:56 5,5 C 5,0 C 2,8 C 94 % 1012,5 hPa 0,0 l/m 0 min 0 min 0 W/m 6,4 km/h (2 Bft) 97,87 %
30.04.2021 05:58 5,5 C 5,0 C 3,4 C 94 % 1012,5 hPa 0,0 l/m 0 min 0 min 0 W/m 6,4 km/h (2 Bft) 100,00 %
30.04.2021 06:00 5,5 C 5,0 C 2,8 C 94 % 1012,6 hPa 0,0 l/m 0 min 2 min 0 W/m 3,2 km/h (1 Bft) 95,74 %
30.04.2021 06:02 5,5 C 5,0 C 2,8 C 94 % 1012,6 hPa 0,2 l/m 0 min 2 min 0 W/m 3,2 km/h (1 Bft) 95,74 %
30.04.2021 06:04 5,4 C 5,0 C 2,8 C 94 % 1012,6 hPa 0,0 l/m 0 min 2 min 0 W/m 6,4 km/h (2 Bft) 97,87 %
30.04.2021 06:08 5,4 C 5,0 C 2,8 C 94 % 1012,5 hPa 0,0 l/m 0 min 0 min 0 W/m 6,4 km/h (2 Bft) 95,74 %
30.04.2021 06:10 5,4 C 5,0 C 2,8 C 94 % 1012,5 hPa 0,0 l/m 0 min 0 min 0 W/m 6,4 km/h (2 Bft) 95,65 %
30.04.2021 06:12 5,4 C 5,0 C 2,8 C 94 % 1012,5 hPa 0,0 l/m 0 min 2 min 0 W/m 6,4 km/h (2 Bft) 95,74 %
30.04.2021 06:14 5,4 C 5,0 C 2,8 C 94 % 1012,5 hPa 0,0 l/m 0 min 0 min 0 W/m 3,2 km/h (1 Bft) 93,62 %
30.04.2021 06:16 5,4 C 5,0 C 2,8 C 94 % 1012,4 hPa 0,0 l/m 0 min 0 min 0 W/m 3,2 km/h (1 Bft) 95,74 %
30.04.2021 06:18 5,4 C 5,0 C 2,8 C 94 % 1012,5 hPa 0,0 l/m 0 min 0 min 0 W/m 3,2 km/h (1 Bft) 93,62 %
30.04.2021 06:20 5,4 C 5,0 C 2,8 C 94 % 1012,5 hPa 0,0 l/m 0 min 0 min 0 W/m 3,2 km/h (1 Bft) 93,62 %
30.04.2021 06:22 5,4 C 5,0 C 2,8 C 94 % 1012,4 hPa 0,0 l/m 0 min 0 min 0 W/m 3,2 km/h (1 Bft) 91,30 %
30.04.2021 06:24 5,4 C 5,0 C 2,8 C 94 % 1012,4 hPa 0,0 l/m 0 min 0 min 0 W/m 3,2 km/h (1 Bft) 93,62 %
30.04.2021 06:26 5,4 C 5,0 C 2,8 C 94 % 1012,4 hPa 0,0 l/m 0 min 0 min 0 W/m 3,2 km/h (1 Bft) 93,62 %
30.04.2021 06:28 5,4 C 5,0 C 2,8 C 95 % 1012,4 hPa 0,0 l/m 0 min 0 min 0 W/m 0,0 km/h (0 Bft) 93,62 %
30.04.2021 06:30 5,4 C 5,0 C 2,8 C 94 % 1012,5 hPa 0,0 l/m 0 min 0 min 0 W/m 3,2 km/h (1 Bft) 93,62 %
30.04.2021 06:32 5,4 C 5,0 C 3,4 C 94 % 1012,5 hPa 0,2 l/m 0 min 0 min 0 W/m 6,4 km/h (2 Bft) 93,62 %
30.04.2021 06:34 5,3 C 5,0 C 2,8 C 94 % 1012,5 hPa 0,0 l/m 0 min 0 min 0 W/m 3,2 km/h (1 Bft) 93,48 %
30.04.2021 06:36 5,3 C 5,0 C 2,8 C 94 % 1012,6 hPa 0,0 l/m 0 min 0 min 0 W/m 6,4 km/h (2 Bft) 91,49 %
30.04.2021 06:38 5,3 C 5,0 C 3,4 C 94 % 1012,5 hPa 0,0 l/m 0 min 0 min 0 W/m 3,2 km/h (1 Bft) 92,45 %
30.04.2021 06:40 5,4 C 5,0 C 3,4 C 94 % 1012,5 hPa 0,0 l/m 0 min 0 min 0 W/m 0,0 km/h (0 Bft) 93,62 %
30.04.2021 06:42 5,3 C 5,0 C 3,4 C 95 % 1012,5 hPa 0,0 l/m 0 min 0 min 0 W/m 6,4 km/h (2 Bft) 93,62 %
30.04.2021 06:44 5,3 C 5,0 C 2,8 C 95 % 1012,5 hPa 0,0 l/m 0 min 0 min 0 W/m 3,2 km/h (1 Bft) 95,74 %
30.04.2021 06:46 5,3 C 5,0 C 2,8 C 95 % 1012,5 hPa 0,0 l/m 0 min 0 min 0 W/m 3,2 km/h (1 Bft) 93,48 %
30.04.2021 06:48 5,3 C 5,0 C 2,8 C 95 % 1012,5 hPa 0,0 l/m 0 min 0 min 2 W/m 3,2 km/h (1 Bft) 95,74 %
30.04.2021 06:50 5,4 C 5,0 C 3,4 C 95 % 1012,5 hPa 0,0 l/m 0 min 0 min 5 W/m 0,0 km/h (0 Bft) 95,74 %
30.04.2021 06:52 5,4 C 5,0 C 2,8 C 95 % 1012,5 hPa 0,0 l/m 0 min 0 min 5 W/m 3,2 km/h (1 Bft) 95,74 %
30.04.2021 06:54 5,3 C 5,0 C 2,8 C 95 % 1012,5 hPa 0,0 l/m 0 min 0 min 5 W/m 6,4 km/h (2 Bft) 91,49 %
30.04.2021 06:56 5,4 C 5,0 C 2,8 C 95 % 1012,5 hPa 0,0 l/m 0 min 0 min 6 W/m 3,2 km/h (1 Bft) 95,74 %
30.04.2021 06:58 5,4 C 5,0 C 3,4 C 95 % 1012,5 hPa 0,0 l/m 0 min 0 min 7 W/m 3,2 km/h (1 Bft) 95,65 %
30.04.2021 07:00 5,4 C 5,0 C 3,4 C 95 % 1012,6 hPa 0,0 l/m 0 min 0 min 7 W/m 3,2 km/h (1 Bft) 95,74 %
30.04.2021 07:02 5,4 C 5,0 C 3,4 C 95 % 1012,6 hPa 0,0 l/m 0 min 0 min 9 W/m 3,2 km/h (1 Bft) 95,74 %
30.04.2021 07:04 5,4 C 5,0 C 3,4 C 95 % 1012,6 hPa 0,0 l/m 0 min 0 min 8 W/m 3,2 km/h (1 Bft) 97,87 %
30.04.2021 07:06 5,4 C 5,0 C 3,4 C 95 % 1012,7 hPa 0,0 l/m 0 min 0 min 8 W/m 0,0 km/h (0 Bft) 95,74 %
30.04.2021 07:08 5,5 C 5,0 C 3,4 C 95 % 1012,7 hPa 0,0 l/m 0 min 0 min 9 W/m 3,2 km/h (1 Bft) 97,92 %
30.04.2021 07:10 5,5 C 5,0 C 3,4 C 95 % 1012,7 hPa 0,0 l/m 0 min 0 min 9 W/m 3,2 km/h (1 Bft) 97,83 %
30.04.2021 07:12 5,5 C 5,0 C 3,4 C 95 % 1012,7 hPa 0,0 l/m 0 min 0 min 9 W/m 0,0 km/h (0 Bft) 95,74 %
30.04.2021 07:14 5,5 C 5,0 C 3,4 C 95 % 1012,7 hPa 0,0 l/m 0 min 0 min 9 W/m 3,2 km/h (1 Bft) 97,87 %
30.04.2021 07:16 5,5 C 5,0 C 3,4 C 95 % 1012,8 hPa 0,0 l/m 0 min 0 min 9 W/m 3,2 km/h (1 Bft) 95,74 %
30.04.2021 07:18 5,5 C 5,0 C 3,4 C 95 % 1012,8 hPa 0,0 l/m 0 min 0 min 9 W/m 0,0 km/h (0 Bft) 97,87 %
30.04.2021 07:20 5,5 C 5,0 C 3,4 C 95 % 1012,8 hPa 0,0 l/m 0 min 0 min 10 W/m 0,0 km/h (0 Bft) 95,74 %
30.04.2021 07:22 5,5 C 5,0 C 3,4 C 95 % 1012,8 hPa 0,0 l/m 0 min 0 min 9 W/m 0,0 km/h (0 Bft) 95,65 %
30.04.2021 07:24 5,5 C 5,0 C 3,4 C 95 % 1012,9 hPa 0,0 l/m 0 min 0 min 8 W/m 3,2 km/h (1 Bft) 97,87 %
30.04.2021 07:26 5,5 C 5,0 C 3,4 C 95 % 1012,9 hPa 0,0 l/m 0 min 0 min 7 W/m 0,0 km/h (0 Bft) 97,87 %
30.04.2021 07:28 5,6 C 5,0 C 3,4 C 95 % 1012,9 hPa 0,0 l/m 0 min 0 min 7 W/m 0,0 km/h (0 Bft) 95,74 %
30.04.2021 07:30 5,6 C 5,0 C 3,4 C 95 % 1012,9 hPa 0,0 l/m 0 min 0 min 7 W/m 3,2 km/h (1 Bft) 95,74 %
30.04.2021 07:32 5,6 C 5,0 C 3,4 C 95 % 1012,9 hPa 0,0 l/m 0 min 0 min 9 W/m 3,2 km/h (1 Bft) 97,87 %
30.04.2021 07:34 5,5 C 5,0 C 3,4 C 95 % 1012,9 hPa 0,0 l/m 0 min 0 min 9 W/m 6,4 km/h (2 Bft) 95,74 %
30.04.2021 07:36 5,5 C 5,0 C 3,4 C 95 % 1012,9 hPa 0,0 l/m 0 min 0 min 11 W/m 3,2 km/h (1 Bft) 97,87 %
30.04.2021 07:38 5,5 C 5,0 C 3,4 C 95 % 1013,0 hPa 0,0 l/m 0 min 0 min 12 W/m 3,2 km/h (1 Bft) 97,87 %
30.04.2021 07:40 5,5 C 5,0 C 3,4 C 95 % 1012,9 hPa 0,0 l/m 0 min 0 min 12 W/m 3,2 km/h (1 Bft) 97,87 %
30.04.2021 07:42 5,5 C 5,0 C 3,4 C 95 % 1012,9 hPa 0,0 l/m 0 min 0 min 14 W/m 3,2 km/h (1 Bft) 97,87 %
30.04.2021 07:44 5,5 C 5,0 C 3,4 C 95 % 1012,9 hPa 0,0 l/m 0 min 0 min 13 W/m 3,2 km/h (1 Bft) 97,83 %
30.04.2021 07:46 5,5 C 5,0 C 3,4 C 95 % 1012,9 hPa 0,0 l/m 0 min 0 min 12 W/m 6,4 km/h (2 Bft) 97,87 %
30.04.2021 07:48 5,5 C 5,6 C 3,4 C 95 % 1012,9 hPa 0,0 l/m 0 min 0 min 12 W/m 3,2 km/h (1 Bft) 95,74 %
30.04.2021 07:50 5,6 C 5,6 C 3,4 C 95 % 1012,9 hPa 0,0 l/m 0 min 0 min 13 W/m 0,0 km/h (0 Bft) 97,87 %
30.04.2021 07:52 5,6 C 5,6 C 3,4 C 95 % 1013,0 hPa 0,0 l/m 0 min 0 min 16 W/m 3,2 km/h (1 Bft) 97,87 %
30.04.2021 07:54 5,6 C 5,0 C 3,4 C 95 % 1013,0 hPa 0,0 l/m 0 min 0 min 19 W/m 3,2 km/h (1 Bft) 95,74 %
30.04.2021 07:56 5,6 C 5,0 C 3,4 C 95 % 1013,0 hPa 0,0 l/m 0 min 0 min 19 W/m 3,2 km/h (1 Bft) 91,30 %
30.04.2021 07:58 5,5 C 5,0 C 3,4 C 95 % 1013,0 hPa 0,0 l/m 0 min 0 min 21 W/m 0,0 km/h (0 Bft) 97,87 %
30.04.2021 08:00 5,5 C 5,0 C 3,4 C 95 % 1013,0 hPa 0,0 l/m 0 min 0 min 21 W/m 3,2 km/h (1 Bft) 97,87 %
30.04.2021 08:02 5,5 C 5,0 C 3,4 C 95 % 1013,1 hPa 0,0 l/m 0 min 0 min 21 W/m 3,2 km/h (1 Bft) 100,00 %
30.04.2021 08:04 5,5 C 5,0 C 3,4 C 95 % 1013,0 hPa 0,0 l/m 0 min 0 min 21 W/m 3,2 km/h (1 Bft) 95,74 %
30.04.2021 08:06 5,5 C 5,0 C 3,4 C 95 % 1013,1 hPa 0,0 l/m 0 min 0 min 21 W/m 3,2 km/h (1 Bft) 100,00 %
30.04.2021 08:08 5,5 C 5,0 C 3,4 C 95 % 1013,1 hPa 0,0 l/m 0 min 0 min 20 W/m 6,4 km/h (2 Bft) 100,00 %
30.04.2021 08:10 5,5 C 5,0 C 3,4 C 95 % 1013,1 hPa 0,0 l/m 0 min 0 min 21 W/m 0,0 km/h (0 Bft) 95,74 %
30.04.2021 08:12 5,5 C 5,0 C 3,4 C 95 % 1013,1 hPa 0,0 l/m 0 min 0 min 24 W/m 0,0 km/h (0 Bft) 100,00 %
30.04.2021 08:14 5,5 C 5,0 C 3,4 C 95 % 1013,2 hPa 0,0 l/m 0 min 0 min 25 W/m 0,0 km/h (0 Bft) 95,74 %
30.04.2021 08:16 5,5 C 5,0 C 3,4 C 95 % 1013,2 hPa 0,0 l/m 0 min 0 min 26 W/m 6,4 km/h (2 Bft) 97,87 %
30.04.2021 08:18 5,5 C 5,0 C 3,4 C 95 % 1013,2 hPa 0,0 l/m 0 min 0 min 26 W/m 3,2 km/h (1 Bft) 100,00 %
30.04.2021 08:20 5,5 C 5,0 C 3,4 C 95 % 1013,2 hPa 0,0 l/m 0 min 0 min 25 W/m 3,2 km/h (1 Bft) 100,00 %
30.04.2021 08:22 5,5 C 5,0 C 3,4 C 95 % 1013,3 hPa 0,0 l/m 0 min 0 min 26 W/m 3,2 km/h (1 Bft) 100,00 %
30.04.2021 08:24 5,5 C 5,0 C 3,4 C 95 % 1013,2 hPa 0,0 l/m 0 min 0 min 26 W/m 3,2 km/h (1 Bft) 95,74 %
30.04.2021 08:26 5,4 C 5,0 C 3,4 C 95 % 1013,2 hPa 0,0 l/m 0 min 0 min 26 W/m 0,0 km/h (0 Bft) 100,00 %
30.04.2021 08:28 5,4 C 5,0 C 3,4 C 95 % 1013,1 hPa 0,0 l/m 0 min 0 min 28 W/m 3,2 km/h (1 Bft) 95,74 %
30.04.2021 08:30 5,4 C 5,0 C 3,4 C 95 % 1013,1 hPa 0,0 l/m 0 min 0 min 29 W/m 6,4 km/h (2 Bft) 97,87 %
30.04.2021 08:32 5,3 C 5,0 C 3,4 C 95 % 1013,1 hPa 0,0 l/m 0 min 0 min 31 W/m 0,0 km/h (0 Bft) 97,87 %
30.04.2021 08:34 5,3 C 5,0 C 3,4 C 95 % 1013,1 hPa 0,0 l/m 0 min 0 min 33 W/m 0,0 km/h (0 Bft) 95,74 %
30.04.2021 08:36 5,3 C 5,0 C 3,4 C 95 % 1013,1 hPa 0,0 l/m 0 min 0 min 33 W/m 3,2 km/h (1 Bft) 97,87 %
30.04.2021 08:38 5,3 C 5,0 C 3,4 C 95 % 1013,1 hPa 0,0 l/m 0 min 0 min 31 W/m 3,2 km/h (1 Bft) 97,87 %
30.04.2021 08:40 5,3 C 5,0 C 3,4 C 95 % 1013,2 hPa 0,0 l/m 0 min 0 min 29 W/m 3,2 km/h (1 Bft) 97,87 %
30.04.2021 08:42 5,3 C 5,0 C 3,4 C 95 % 1013,2 hPa 0,0 l/m 0 min 0 min 27 W/m 6,4 km/h (2 Bft) 95,74 %
30.04.2021 08:44 5,3 C 5,0 C 3,4 C 95 % 1013,2 hPa 0,0 l/m 0 min 0 min 27 W/m 9,7 km/h (2 Bft) 93,48 %
30.04.2021 08:46 5,3 C 5,0 C 3,4 C 95 % 1013,2 hPa 0,0 l/m 0 min 0 min 27 W/m 3,2 km/h (1 Bft) 97,22 %
30.04.2021 08:48 5,3 C 5,0 C 3,4 C 95 % 1013,2 hPa 0,0 l/m 0 min 0 min 28 W/m 3,2 km/h (1 Bft) 97,87 %
30.04.2021 08:50 5,3 C 5,0 C 3,4 C 95 % 1013,2 hPa 0,0 l/m 0 min 0 min 27 W/m 3,2 km/h (1 Bft) 98,31 %
30.04.2021 08:52 5,3 C 5,0 C 3,4 C 95 % 1013,2 hPa 0,0 l/m 0 min 0 min 30 W/m 3,2 km/h (1 Bft) 97,14 %
30.04.2021 08:54 5,3 C 5,0 C 3,4 C 95 % 1013,2 hPa 0,0 l/m 0 min 0 min 37 W/m 3,2 km/h (1 Bft) 96,55 %
30.04.2021 08:56 5,3 C 5,0 C 3,4 C 95 % 1013,2 hPa 0,0 l/m 0 min 0 min 40 W/m 3,2 km/h (1 Bft) 97,87 %
30.04.2021 08:58 5,3 C 5,0 C 3,4 C 95 % 1013,3 hPa 0,0 l/m 0 min 0 min 45 W/m 3,2 km/h (1 Bft) 97,87 %
30.04.2021 09:00 5,4 C 5,0 C 3,4 C 95 % 1013,2 hPa 0,0 l/m 0 min 0 min 48 W/m 3,2 km/h (1 Bft) 97,87 %
30.04.2021 09:02 5,4 C 5,6 C 3,4 C 95 % 1013,3 hPa 0,0 l/m 0 min 0 min 56 W/m 6,4 km/h (2 Bft) 94,29 %
30.04.2021 09:04 5,4 C 5,6 C 3,4 C 95 % 1013,3 hPa 0,0 l/m 0 min 0 min 57 W/m 6,4 km/h (2 Bft) 95,74 %
30.04.2021 09:06 5,5 C 5,6 C 3,9 C 95 % 1013,3 hPa 0,0 l/m 0 min 0 min 62 W/m 3,2 km/h (1 Bft) 95,74 %
30.04.2021 09:08 5,5 C 5,6 C 3,9 C 95 % 1013,4 hPa 0,0 l/m 0 min 0 min 65 W/m 6,4 km/h (2 Bft) 100,00 %
30.04.2021 09:10 5,5 C 5,6 C 3,9 C 95 % 1013,4 hPa 0,0 l/m 0 min 0 min 65 W/m 6,4 km/h (2 Bft) 97,87 %
30.04.2021 09:12 5,5 C 5,6 C 3,9 C 95 % 1013,4 hPa 0,0 l/m 0 min 0 min 65 W/m 3,2 km/h (1 Bft) 100,00 %
30.04.2021 09:14 5,5 C 5,6 C 3,9 C 95 % 1013,4 hPa 0,0 l/m 0 min 0 min 63 W/m 3,2 km/h (1 Bft) 98,31 %
30.04.2021 09:16 5,5 C 5,6 C 3,9 C 95 % 1013,4 hPa 0,0 l/m 0 min 0 min 53 W/m 3,2 km/h (1 Bft) 100,00 %
30.04.2021 09:18 5,5 C 5,6 C 3,9 C 95 % 1013,4 hPa 0,0 l/m 0 min 0 min 47 W/m 3,2 km/h (1 Bft) 100,00 %
30.04.2021 09:20 5,5 C 5,6 C 3,9 C 95 % 1013,4 hPa 0,0 l/m 0 min 0 min 43 W/m 0,0 km/h (0 Bft) 100,00 %
30.04.2021 09:22 5,5 C 5,6 C 3,9 C 95 % 1013,4 hPa 0,0 l/m 0 min 0 min 47 W/m 3,2 km/h (1 Bft) 100,00 %
30.04.2021 09:24 5,6 C 5,6 C 3,9 C 95 % 1013,4 hPa 0,0 l/m 0 min 0 min 51 W/m 3,2 km/h (1 Bft) 98,31 %
30.04.2021 09:26 5,6 C 5,6 C 3,9 C 95 % 1013,4 hPa 0,0 l/m 0 min 0 min 64 W/m 6,4 km/h (2 Bft) 100,00 %
30.04.2021 09:28 5,5 C 5,6 C 3,9 C 95 % 1013,4 hPa 0,0 l/m 0 min 0 min 70 W/m 3,2 km/h (1 Bft) 97,87 %
30.04.2021 09:30 5,6 C 5,6 C 3,9 C 95 % 1013,4 hPa 0,0 l/m 0 min 0 min 71 W/m 6,4 km/h (2 Bft) 100,00 %
30.04.2021 09:32 5,6 C 5,6 C 3,9 C 95 % 1013,5 hPa 0,0 l/m 0 min 0 min 68 W/m 3,2 km/h (1 Bft) 97,87 %
30.04.2021 09:34 5,6 C 5,6 C 3,9 C 95 % 1013,5 hPa 0,0 l/m 0 min 0 min 62 W/m 6,4 km/h (2 Bft) 96,55 %
30.04.2021 09:36 5,6 C 5,6 C 3,9 C 95 % 1013,5 hPa 0,0 l/m 0 min 0 min 65 W/m 3,2 km/h (1 Bft) 94,29 %
30.04.2021 09:38 5,6 C 5,6 C 3,9 C 95 % 1013,4 hPa 0,0 l/m 0 min 0 min 71 W/m 0,0 km/h (0 Bft) 98,31 %
30.04.2021 09:40 5,7 C 6,1 C 3,9 C 95 % 1013,4 hPa 0,0 l/m 0 min 0 min 78 W/m 3,2 km/h (1 Bft) 97,14 %
30.04.2021 09:42 5,8 C 6,1 C 4,5 C 95 % 1013,5 hPa 0,0 l/m 0 min 0 min 82 W/m 3,2 km/h (1 Bft) 97,87 %
30.04.2021 09:44 5,9 C 6,1 C 4,5 C 95 % 1013,4 hPa 0,0 l/m 0 min 0 min 85 W/m 3,2 km/h (1 Bft) 97,87 %
30.04.2021 09:46 5,9 C 6,1 C 4,5 C 95 % 1013,5 hPa 0,0 l/m 0 min 0 min 87 W/m 3,2 km/h (1 Bft) 100,00 %
30.04.2021 09:48 5,9 C 6,1 C 4,5 C 95 % 1013,4 hPa 0,0 l/m 0 min 0 min 91 W/m 3,2 km/h (1 Bft) 97,87 %
30.04.2021 09:50 5,9 C 6,1 C 4,5 C 95 % 1013,5 hPa 0,0 l/m 0 min 0 min 96 W/m 6,4 km/h (2 Bft) 97,87 %
30.04.2021 09:52 5,9 C 6,1 C 4,5 C 95 % 1013,5 hPa 0,0 l/m 0 min 0 min 98 W/m 6,4 km/h (2 Bft) 95,74 %
30.04.2021 09:54 5,9 C 6,1 C 4,5 C 95 % 1013,5 hPa 0,0 l/m 0 min 0 min 102 W/m 6,4 km/h (2 Bft) 97,87 %
30.04.2021 09:56 5,9 C 6,1 C 4,5 C 95 % 1013,5 hPa 0,0 l/m 0 min 0 min 108 W/m 6,4 km/h (2 Bft) 97,83 %
30.04.2021 09:58 6,0 C 6,1 C 4,5 C 95 % 1013,5 hPa 0,0 l/m 0 min 0 min 111 W/m 6,4 km/h (2 Bft) 93,62 %
30.04.2021 10:00 6,0 C 6,1 C 4,5 C 95 % 1013,5 hPa 0,0 l/m 0 min 0 min 109 W/m 6,4 km/h (2 Bft) 97,87 %
30.04.2021 10:02 6,0 C 6,1 C 4,5 C 95 % 1013,5 hPa 0,0 l/m 0 min 0 min 110 W/m 6,4 km/h (2 Bft) 97,87 %
30.04.2021 10:04 6,0 C 6,1 C 4,5 C 95 % 1013,5 hPa 0,0 l/m 0 min 0 min 112 W/m 12,9 km/h (3 Bft) 95,74 %
30.04.2021 10:06 6,0 C 6,1 C 4,5 C 95 % 1013,6 hPa 0,0 l/m 0 min 0 min 102 W/m 3,2 km/h (1 Bft) 96,55 %
30.04.2021 10:08 6,0 C 6,1 C 4,5 C 95 % 1013,5 hPa 0,0 l/m 0 min 0 min 95 W/m 6,4 km/h (2 Bft) 97,87 %
30.04.2021 10:10 6,0 C 6,1 C 4,5 C 95 % 1013,6 hPa 0,0 l/m 0 min 0 min 93 W/m 9,7 km/h (2 Bft) 97,14 %
30.04.2021 10:12 6,0 C 6,1 C 4,5 C 95 % 1013,6 hPa 0,0 l/m 0 min 0 min 92 W/m 6,4 km/h (2 Bft) 95,74 %
30.04.2021 10:14 6,1 C 6,1 C 4,5 C 95 % 1013,6 hPa 0,0 l/m 0 min 0 min 90 W/m 9,7 km/h (2 Bft) 97,87 %
30.04.2021 10:16 6,1 C 6,1 C 4,5 C 95 % 1013,6 hPa 0,0 l/m 0 min 0 min 86 W/m 3,2 km/h (1 Bft) 97,87 %
30.04.2021 10:18 6,1 C 6,1 C 4,5 C 95 % 1013,6 hPa 0,0 l/m 0 min 0 min 82 W/m 6,4 km/h (2 Bft) 95,74 %
30.04.2021 10:20 6,1 C 6,1 C 4,5 C 95 % 1013,6 hPa 0,0 l/m 0 min 0 min 79 W/m 9,7 km/h (2 Bft) 97,83 %
30.04.2021 10:22 6,1 C 6,1 C 4,5 C 95 % 1013,6 hPa 0,0 l/m 0 min 0 min 91 W/m 12,9 km/h (3 Bft) 97,87 %
30.04.2021 10:24 6,1 C 6,1 C 4,5 C 95 % 1013,6 hPa 0,0 l/m 0 min 0 min 94 W/m 3,2 km/h (1 Bft) 97,87 %
30.04.2021 10:26 6,1 C 6,1 C 4,5 C 95 % 1013,6 hPa 0,0 l/m 0 min 0 min 93 W/m 3,2 km/h (1 Bft) 93,62 %
30.04.2021 10:28 6,2 C 6,1 C 4,5 C 95 % 1013,6 hPa 0,0 l/m 0 min 0 min 87 W/m 3,2 km/h (1 Bft) 97,87 %
30.04.2021 10:30 6,2 C 6,1 C 4,5 C 95 % 1013,7 hPa 0,0 l/m 0 min 0 min 77 W/m 3,2 km/h (1 Bft) 100,00 %
30.04.2021 10:32 6,3 C 6,1 C 4,5 C 95 % 1013,6 hPa 0,0 l/m 0 min 0 min 72 W/m 3,2 km/h (1 Bft) 100,00 %
30.04.2021 10:34 6,3 C 6,1 C 4,5 C 95 % 1013,7 hPa 0,0 l/m 0 min 0 min 66 W/m 3,2 km/h (1 Bft) 100,00 %
30.04.2021 10:36 6,2 C 6,1 C 4,5 C 95 % 1013,7 hPa 0,0 l/m 0 min 0 min 60 W/m 3,2 km/h (1 Bft) 100,00 %
30.04.2021 10:38 6,2 C 6,1 C 4,5 C 95 % 1013,6 hPa 0,0 l/m 0 min 0 min 58 W/m 3,2 km/h (1 Bft) 97,87 %
30.04.2021 10:40 6,2 C 6,1 C 4,5 C 95 % 1013,7 hPa 0,0 l/m 0 min 0 min 57 W/m 3,2 km/h (1 Bft) 97,83 %
30.04.2021 10:42 6,2 C 6,1 C 4,5 C 95 % 1013,7 hPa 0,0 l/m 0 min 0 min 56 W/m 3,2 km/h (1 Bft) 100,00 %
30.04.2021 10:44 6,2 C 6,1 C 4,5 C 95 % 1013,7 hPa 0,0 l/m 0 min 0 min 59 W/m 3,2 km/h (1 Bft) 100,00 %
30.04.2021 10:46 6,2 C 6,1 C 4,5 C 95 % 1013,7 hPa 0,0 l/m 0 min 0 min 62 W/m 3,2 km/h (1 Bft) 97,87 %
30.04.2021 10:48 6,2 C 6,1 C 4,5 C 95 % 1013,7 hPa 0,0 l/m 0 min 0 min 67 W/m 3,2 km/h (1 Bft) 100,00 %
30.04.2021 10:50 6,2 C 6,1 C 4,5 C 95 % 1013,7 hPa 0,0 l/m 0 min 0 min 71 W/m 6,4 km/h (2 Bft) 97,87 %
30.04.2021 10:52 6,3 C 6,1 C 4,5 C 95 % 1013,7 hPa 0,0 l/m 0 min 0 min 75 W/m 3,2 km/h (1 Bft) 100,00 %
30.04.2021 10:54 6,3 C 6,1 C 4,5 C 95 % 1013,8 hPa 0,0 l/m 0 min 0 min 76 W/m 3,2 km/h (1 Bft) 100,00 %
30.04.2021 10:56 6,2 C 6,1 C 4,5 C 95 % 1013,8 hPa 0,0 l/m 0 min 0 min 78 W/m 12,9 km/h (3 Bft) 97,87 %
30.04.2021 10:58 6,2 C 6,1 C 4,5 C 95 % 1013,8 hPa 0,0 l/m 0 min 0 min 80 W/m 0,0 km/h (0 Bft) 100,00 %
30.04.2021 11:00 6,3 C 6,1 C 4,5 C 95 % 1013,8 hPa 0,0 l/m 0 min 0 min 81 W/m 3,2 km/h (1 Bft) 95,74 %
30.04.2021 11:02 6,3 C 6,1 C 4,5 C 95 % 1013,9 hPa 0,0 l/m 0 min 0 min 81 W/m 3,2 km/h (1 Bft) 96,30 %
30.04.2021 11:04 6,4 C 6,7 C 4,5 C 95 % 1013,9 hPa 0,0 l/m 0 min 0 min 83 W/m 3,2 km/h (1 Bft) 97,87 %
30.04.2021 11:06 6,4 C 6,7 C 5,0 C 96 % 1013,9 hPa 0,0 l/m 0 min 0 min 91 W/m 3,2 km/h (1 Bft) 97,83 %
30.04.2021 11:08 6,4 C 6,7 C 5,0 C 96 % 1013,9 hPa 0,0 l/m 0 min 0 min 91 W/m 3,2 km/h (1 Bft) 97,87 %
30.04.2021 11:10 6,4 C 6,7 C 5,0 C 96 % 1013,9 hPa 0,0 l/m 0 min 0 min 84 W/m 6,4 km/h (2 Bft) 95,74 %
30.04.2021 11:12 6,4 C 6,7 C 5,0 C 96 % 1013,9 hPa 0,0 l/m 0 min 0 min 76 W/m 3,2 km/h (1 Bft) 97,87 %
30.04.2021 11:14 6,4 C 6,7 C 5,0 C 96 % 1014,0 hPa 0,0 l/m 0 min 0 min 72 W/m 3,2 km/h (1 Bft) 94,00 %
30.04.2021 11:16 6,4 C 6,7 C 5,0 C 96 % 1014,0 hPa 0,0 l/m 0 min 0 min 76 W/m 3,2 km/h (1 Bft) 97,83 %
30.04.2021 11:18 6,4 C 6,7 C 5,0 C 95 % 1014,0 hPa 0,0 l/m 0 min 0 min 73 W/m 0,0 km/h (0 Bft) 95,74 %
30.04.2021 11:20 6,4 C 6,7 C 5,0 C 95 % 1014,0 hPa 0,0 l/m 0 min 0 min 69 W/m 3,2 km/h (1 Bft) 97,87 %
30.04.2021 11:22 6,5 C 6,7 C 5,0 C 95 % 1014,0 hPa 0,0 l/m 0 min 0 min 72 W/m 6,4 km/h (2 Bft) 95,74 %
30.04.2021 11:24 6,5 C 6,7 C 5,0 C 95 % 1014,0 hPa 0,0 l/m 0 min 0 min 81 W/m 3,2 km/h (1 Bft) 97,87 %
30.04.2021 11:26 6,5 C 6,7 C 5,0 C 95 % 1013,9 hPa 0,0 l/m 0 min 0 min 88 W/m 3,2 km/h (1 Bft) 93,62 %
30.04.2021 11:28 6,5 C 6,7 C 5,0 C 95 % 1013,9 hPa 0,0 l/m 0 min 0 min 94 W/m 3,2 km/h (1 Bft) 97,83 %
30.04.2021 11:30 6,6 C 6,7 C 5,0 C 95 % 1014,0 hPa 0,0 l/m 0 min 0 min 102 W/m 3,2 km/h (1 Bft) 97,87 %
30.04.2021 11:32 6,6 C 6,7 C 5,0 C 95 % 1014,0 hPa 0,0 l/m 0 min 0 min 107 W/m 3,2 km/h (1 Bft) 97,87 %
30.04.2021 11:34 6,6 C 7,2 C 5,0 C 95 % 1014,0 hPa 0,0 l/m 0 min 0 min 101 W/m 3,2 km/h (1 Bft) 97,87 %
30.04.2021 11:36 6,7 C 7,2 C 5,6 C 95 % 1014,0 hPa 0,0 l/m 0 min 0 min 93 W/m 3,2 km/h (1 Bft) 97,87 %
30.04.2021 11:38 6,8 C 7,2 C 5,6 C 95 % 1014,0 hPa 0,0 l/m 0 min 0 min 93 W/m 3,2 km/h (1 Bft) 97,87 %
30.04.2021 11:40 6,8 C 7,2 C 5,6 C 95 % 1014,0 hPa 0,0 l/m 0 min 0 min 91 W/m 3,2 km/h (1 Bft) 91,30 %
30.04.2021 11:42 6,9 C 7,2 C 5,6 C 95 % 1014,1 hPa 0,0 l/m 0 min 0 min 94 W/m 6,4 km/h (2 Bft) 97,87 %
30.04.2021 11:44 6,9 C 7,2 C 5,6 C 95 % 1014,0 hPa 0,0 l/m 0 min 0 min 106 W/m 3,2 km/h (1 Bft) 97,87 %
30.04.2021 11:46 6,9 C 7,2 C 5,6 C 95 % 1014,1 hPa 0,0 l/m 0 min 0 min 114 W/m 3,2 km/h (1 Bft) 89,36 %
30.04.2021 11:48 7,0 C 7,2 C 5,6 C 95 % 1014,1 hPa 0,0 l/m 0 min 0 min 99 W/m 3,2 km/h (1 Bft) 93,62 %
30.04.2021 11:50 7,0 C 7,2 C 5,6 C 95 % 1014,1 hPa 0,0 l/m 0 min 0 min 90 W/m 3,2 km/h (1 Bft) 97,87 %
30.04.2021 11:52 7,0 C 7,2 C 5,6 C 95 % 1014,1 hPa 0,0 l/m 0 min 0 min 96 W/m 6,4 km/h (2 Bft) 97,83 %
30.04.2021 11:54 7,0 C 7,2 C 5,6 C 94 % 1014,0 hPa 0,0 l/m 0 min 0 min 114 W/m 3,2 km/h (1 Bft) 100,00 %
30.04.2021 11:56 7,1 C 7,2 C 5,6 C 94 % 1014,0 hPa 0,0 l/m 0 min 0 min 144 W/m 3,2 km/h (1 Bft) 97,87 %
30.04.2021 11:58 7,1 C 7,8 C 5,6 C 94 % 1014,0 hPa 0,0 l/m 0 min 0 min 178 W/m 3,2 km/h (1 Bft) 97,87 %
30.04.2021 12:00 7,2 C 7,8 C 6,1 C 94 % 1014,0 hPa 0,0 l/m 0 min 0 min 200 W/m 3,2 km/h (1 Bft) 97,87 %
30.04.2021 12:02 7,3 C 7,8 C 6,1 C 94 % 1014,0 hPa 0,0 l/m 0 min 0 min 199 W/m 6,4 km/h (2 Bft) 78,72 %
30.04.2021 12:04 7,3 C 8,3 C 6,1 C 94 % 1014,1 hPa 0,0 l/m 0 min 0 min 197 W/m 6,4 km/h (2 Bft) 75,00 %
30.04.2021 12:08 7,5 C 8,3 C 6,7 C 94 % 1014,1 hPa 0,0 l/m 0 min 0 min 209 W/m 6,4 km/h (2 Bft) 100,00 %
30.04.2021 12:10 7,5 C 8,9 C 6,7 C 94 % 1014,1 hPa 0,0 l/m 0 min 0 min 258 W/m 3,2 km/h (1 Bft) 95,74 %
30.04.2021 12:12 7,6 C 8,9 C 6,7 C 93 % 1014,1 hPa 0,0 l/m 0 min 0 min 275 W/m 6,4 km/h (2 Bft) 100,00 %
30.04.2021 12:14 7,7 C 8,9 C 6,7 C 93 % 1014,0 hPa 0,0 l/m 0 min 0 min 269 W/m 6,4 km/h (2 Bft) 97,87 %
30.04.2021 12:16 7,8 C 8,9 C 6,7 C 93 % 1014,1 hPa 0,0 l/m 0 min 0 min 256 W/m 6,4 km/h (2 Bft) 97,83 %
30.04.2021 12:18 7,9 C 8,9 C 6,7 C 93 % 1014,0 hPa 0,0 l/m 0 min 0 min 240 W/m 3,2 km/h (1 Bft) 97,87 %
30.04.2021 12:20 7,9 C 8,9 C 6,7 C 93 % 1014,0 hPa 0,0 l/m 0 min 0 min 244 W/m 12,9 km/h (3 Bft) 95,74 %
30.04.2021 12:22 7,9 C 8,9 C 7,3 C 93 % 1014,0 hPa 0,0 l/m 0 min 0 min 258 W/m 3,2 km/h (1 Bft) 97,87 %
30.04.2021 12:24 8,0 C 9,4 C 7,3 C 92 % 1014,0 hPa 0,0 l/m 0 min 0 min 270 W/m 6,4 km/h (2 Bft) 95,74 %
30.04.2021 12:26 8,1 C 8,9 C 7,3 C 92 % 1014,0 hPa 0,0 l/m 0 min 0 min 295 W/m 6,4 km/h (2 Bft) 97,87 %
30.04.2021 12:28 8,1 C 9,4 C 7,3 C 92 % 1014,0 hPa 0,0 l/m 0 min 0 min 334 W/m 9,7 km/h (2 Bft) 95,65 %
30.04.2021 12:30 8,2 C 9,4 C 7,3 C 92 % 1014,0 hPa 0,0 l/m 0 min 0 min 355 W/m 6,4 km/h (2 Bft) 97,87 %
30.04.2021 12:32 8,3 C 9,4 C 7,8 C 92 % 1014,0 hPa 0,0 l/m 0 min 0 min 339 W/m 6,4 km/h (2 Bft) 97,22 %
30.04.2021 12:34 8,4 C 10,0 C 7,8 C 92 % 1013,9 hPa 0,0 l/m 0 min 0 min 310 W/m 6,4 km/h (2 Bft) 97,87 %
30.04.2021 12:36 8,4 C 9,4 C 7,8 C 91 % 1013,9 hPa 0,0 l/m 0 min 0 min 288 W/m 16,1 km/h (3 Bft) 93,62 %
30.04.2021 12:38 8,5 C 10,0 C 7,8 C 91 % 1013,9 hPa 0,0 l/m 0 min 0 min 281 W/m 3,2 km/h (1 Bft) 95,74 %
30.04.2021 12:40 8,5 C 10,0 C 7,8 C 91 % 1013,9 hPa 0,0 l/m 0 min 0 min 292 W/m 6,4 km/h (2 Bft) 95,74 %
30.04.2021 12:42 8,5 C 10,0 C 7,8 C 90 % 1013,9 hPa 0,0 l/m 0 min 0 min 337 W/m 16,1 km/h (3 Bft) 93,48 %
30.04.2021 12:44 8,6 C 10,0 C 7,8 C 90 % 1013,8 hPa 0,0 l/m 0 min 0 min 355 W/m 9,7 km/h (2 Bft) 93,62 %
30.04.2021 12:46 8,6 C 10,0 C 8,4 C 90 % 1013,9 hPa 0,0 l/m 0 min 0 min 311 W/m 3,2 km/h (1 Bft) 91,49 %
30.04.2021 12:48 8,7 C 10,0 C 8,4 C 90 % 1013,9 hPa 0,0 l/m 0 min 0 min 281 W/m 6,4 km/h (2 Bft) 95,74 %
30.04.2021 12:50 8,8 C 10,0 C 7,8 C 89 % 1013,8 hPa 0,0 l/m 0 min 0 min 290 W/m 6,4 km/h (2 Bft) 95,74 %
30.04.2021 12:52 8,8 C 10,0 C 8,4 C 89 % 1013,8 hPa 0,0 l/m 0 min 0 min 335 W/m 3,2 km/h (1 Bft) 95,74 %
30.04.2021 12:54 8,8 C 10,0 C 8,4 C 89 % 1013,7 hPa 0,0 l/m 0 min 0 min 354 W/m 12,9 km/h (3 Bft) 95,65 %
30.04.2021 12:56 8,9 C 10,6 C 8,4 C 89 % 1013,8 hPa 0,0 l/m 0 min 0 min 347 W/m 6,4 km/h (2 Bft) 95,74 %
30.04.2021 12:58 9,0 C 10,6 C 8,4 C 89 % 1013,8 hPa 0,0 l/m 0 min 0 min 364 W/m 12,9 km/h (3 Bft) 95,74 %
30.04.2021 13:00 9,0 C 10,6 C 8,4 C 89 % 1013,8 hPa 0,0 l/m 2 min 0 min 407 W/m 9,7 km/h (2 Bft) 95,74 %
30.04.2021 13:02 9,0 C 10,6 C 8,9 C 88 % 1013,7 hPa 0,0 l/m 2 min 0 min 399 W/m 12,9 km/h (3 Bft) 93,62 %
30.04.2021 13:04 9,1 C 10,6 C 8,9 C 88 % 1013,8 hPa 0,0 l/m 0 min 0 min 322 W/m 12,9 km/h (3 Bft) 95,74 %
30.04.2021 13:06 9,1 C 10,6 C 8,9 C 88 % 1013,7 hPa 0,0 l/m 0 min 0 min 309 W/m 12,9 km/h (3 Bft) 96,55 %
30.04.2021 13:08 9,2 C 11,1 C 8,9 C 88 % 1013,7 hPa 0,0 l/m 0 min 0 min 337 W/m 6,4 km/h (2 Bft) 93,62 %
30.04.2021 13:10 9,3 C 11,1 C 8,9 C 88 % 1013,7 hPa 0,0 l/m 0 min 0 min 374 W/m 6,4 km/h (2 Bft) 94,29 %
30.04.2021 13:12 9,4 C 11,1 C 8,9 C 88 % 1013,7 hPa 0,0 l/m 2 min 0 min 399 W/m 9,7 km/h (2 Bft) 95,74 %
30.04.2021 13:14 9,4 C 11,1 C 8,9 C 88 % 1013,7 hPa 0,0 l/m 2 min 0 min 402 W/m 12,9 km/h (3 Bft) 97,87 %
30.04.2021 13:16 9,4 C 11,1 C 8,9 C 87 % 1013,7 hPa 0,0 l/m 2 min 0 min 406 W/m 6,4 km/h (2 Bft) 95,74 %
30.04.2021 13:18 9,5 C 11,7 C 9,5 C 87 % 1013,6 hPa 0,0 l/m 0 min 0 min 387 W/m 3,2 km/h (1 Bft) 97,87 %
30.04.2021 13:20 9,5 C 11,7 C 9,5 C 87 % 1013,6 hPa 0,0 l/m 0 min 0 min 364 W/m 6,4 km/h (2 Bft) 100,00 %
30.04.2021 13:22 9,6 C 11,7 C 9,5 C 87 % 1013,6 hPa 0,0 l/m 0 min 0 min 381 W/m 9,7 km/h (2 Bft) 100,00 %
30.04.2021 13:24 9,6 C 11,7 C 9,5 C 87 % 1013,6 hPa 0,0 l/m 0 min 0 min 391 W/m 9,7 km/h (2 Bft) 97,87 %
30.04.2021 13:26 9,7 C 11,7 C 10,6 C 86 % 1013,6 hPa 0,0 l/m 2 min 0 min 482 W/m 12,9 km/h (3 Bft) 100,00 %
30.04.2021 13:28 9,8 C 13,3 C 13,4 C 86 % 1013,5 hPa 0,0 l/m 2 min 0 min 776 W/m 3,2 km/h (1 Bft) 100,00 %
30.04.2021 13:30 10,0 C 14,4 C 15,6 C 86 % 1013,4 hPa 0,0 l/m 2 min 0 min 1041 W/m 9,7 km/h (2 Bft) 100,00 %
30.04.2021 13:32 10,1 C 13,9 C 14,5 C 85 % 1013,4 hPa 0,0 l/m 2 min 0 min 667 W/m 6,4 km/h (2 Bft) 100,00 %
30.04.2021 13:34 10,2 C 13,9 C 14,5 C 85 % 1013,4 hPa 0,0 l/m 0 min 0 min 322 W/m 9,7 km/h (2 Bft) 95,74 %
30.04.2021 13:36 10,4 C 14,4 C 16,1 C 85 % 1013,4 hPa 0,0 l/m 2 min 0 min 777 W/m 16,1 km/h (3 Bft) 100,00 %
30.04.2021 13:38 10,5 C 15,6 C 17,8 C 84 % 1013,4 hPa 0,0 l/m 2 min 0 min 994 W/m 6,4 km/h (2 Bft) 100,00 %
30.04.2021 13:40 10,8 C 15,0 C 16,7 C 84 % 1013,4 hPa 0,0 l/m 2 min 0 min 922 W/m 6,4 km/h (2 Bft) 100,00 %
30.04.2021 13:42 10,9 C 15,6 C 15,6 C 83 % 1013,4 hPa 0,0 l/m 2 min 0 min 916 W/m 9,7 km/h (2 Bft) 97,87 %
30.04.2021 13:44 11,1 C 16,7 C 15,6 C 83 % 1013,5 hPa 0,0 l/m 2 min 0 min 1027 W/m 12,9 km/h (3 Bft) 100,00 %
30.04.2021 13:46 11,3 C 16,7 C 15,0 C 82 % 1013,4 hPa 0,0 l/m 2 min 0 min 1010 W/m 9,7 km/h (2 Bft) 97,87 %
30.04.2021 13:48 11,5 C 16,7 C 15,0 C 82 % 1013,4 hPa 0,0 l/m 2 min 0 min 894 W/m 9,7 km/h (2 Bft) 100,00 %
30.04.2021 13:50 11,8 C 16,7 C 14,5 C 81 % 1013,4 hPa 0,0 l/m 2 min 0 min 1079 W/m 12,9 km/h (3 Bft) 97,83 %
30.04.2021 13:52 11,9 C 16,7 C 13,4 C 80 % 1013,4 hPa 0,0 l/m 2 min 0 min 1078 W/m 9,7 km/h (2 Bft) 100,00 %
30.04.2021 13:54 11,9 C 16,7 C 13,4 C 78 % 1013,4 hPa 0,0 l/m 2 min 0 min 1088 W/m 6,4 km/h (2 Bft) 100,00 %
30.04.2021 13:56 12,0 C 17,2 C 12,8 C 77 % 1013,4 hPa 0,0 l/m 2 min 0 min 1096 W/m 12,9 km/h (3 Bft) 97,87 %
30.04.2021 13:58 12,1 C 17,8 C 13,4 C 78 % 1013,4 hPa 0,0 l/m 2 min 0 min 990 W/m 12,9 km/h (3 Bft) 100,00 %
30.04.2021 14:00 12,3 C 16,7 C 12,8 C 77 % 1013,4 hPa 0,0 l/m 2 min 0 min 1046 W/m 12,9 km/h (3 Bft) 100,00 %
30.04.2021 14:02 12,3 C 15,6 C 12,3 C 77 % 1013,4 hPa 0,0 l/m 2 min 0 min 1100 W/m 6,4 km/h (2 Bft) 97,83 %
30.04.2021 14:04 12,2 C 14,4 C 11,7 C 77 % 1013,5 hPa 0,0 l/m 0 min 0 min 312 W/m 6,4 km/h (2 Bft) 97,87 %
30.04.2021 14:06 12,1 C 13,3 C 11,1 C 77 % 1013,5 hPa 0,0 l/m 0 min 0 min 239 W/m 6,4 km/h (2 Bft) 97,87 %
30.04.2021 14:08 12,0 C 12,8 C 10,6 C 77 % 1013,4 hPa 0,0 l/m 0 min 0 min 230 W/m 9,7 km/h (2 Bft) 100,00 %
30.04.2021 14:10 11,9 C 12,2 C 10,6 C 77 % 1013,4 hPa 0,0 l/m 0 min 0 min 259 W/m 9,7 km/h (2 Bft) 100,00 %
30.04.2021 14:12 11,9 C 12,2 C 10,6 C 78 % 1013,4 hPa 0,0 l/m 0 min 0 min 276 W/m 6,4 km/h (2 Bft) 100,00 %
30.04.2021 14:14 11,8 C 12,2 C 10,6 C 78 % 1013,4 hPa 0,0 l/m 0 min 0 min 306 W/m 6,4 km/h (2 Bft) 97,83 %
30.04.2021 14:16 11,6 C 12,2 C 10,0 C 78 % 1013,4 hPa 0,0 l/m 0 min 0 min 249 W/m 3,2 km/h (1 Bft) 97,87 %
30.04.2021 14:18 11,5 C 11,7 C 10,0 C 77 % 1013,4 hPa 0,0 l/m 0 min 0 min 231 W/m 9,7 km/h (2 Bft) 100,00 %
30.04.2021 14:20 11,4 C 11,7 C 9,5 C 77 % 1013,4 hPa 0,0 l/m 0 min 0 min 215 W/m 6,4 km/h (2 Bft) 100,00 %
30.04.2021 14:22 11,3 C 11,7 C 9,5 C 77 % 1013,4 hPa 0,0 l/m 0 min 0 min 200 W/m 6,4 km/h (2 Bft) 100,00 %
30.04.2021 14:24 11,2 C 11,1 C 9,5 C 77 % 1013,4 hPa 0,0 l/m 0 min 0 min 185 W/m 3,2 km/h (1 Bft) 95,65 %
30.04.2021 14:26 11,1 C 11,7 C 9,5 C 77 % 1013,4 hPa 0,0 l/m 0 min 0 min 170 W/m 0,0 km/h (0 Bft) 97,87 %
30.04.2021 14:28 11,1 C 11,7 C 9,5 C 78 % 1013,4 hPa 0,0 l/m 0 min 0 min 159 W/m 3,2 km/h (1 Bft) 100,00 %
30.04.2021 14:30 11,1 C 11,7 C 9,5 C 79 % 1013,4 hPa 0,0 l/m 0 min 0 min 151 W/m 12,9 km/h (3 Bft) 100,00 %
30.04.2021 14:32 11,2 C 11,7 C 9,5 C 79 % 1013,4 hPa 0,0 l/m 0 min 0 min 143 W/m 3,2 km/h (1 Bft) 97,87 %
30.04.2021 14:34 11,1 C 11,7 C 8,9 C 78 % 1013,5 hPa 0,0 l/m 0 min 0 min 144 W/m 3,2 km/h (1 Bft) 97,87 %
30.04.2021 14:36 11,1 C 11,1 C 8,9 C 78 % 1013,5 hPa 0,0 l/m 0 min 0 min 152 W/m 16,1 km/h (3 Bft) 97,87 %
30.04.2021 14:38 10,9 C 11,1 C 8,9 C 77 % 1013,5 hPa 0,0 l/m 0 min 0 min 166 W/m 9,7 km/h (2 Bft) 95,65 %
30.04.2021 14:40 10,9 C 11,1 C 8,9 C 78 % 1013,5 hPa 0,0 l/m 0 min 0 min 182 W/m 6,4 km/h (2 Bft) 100,00 %
30.04.2021 14:42 10,9 C 11,1 C 8,9 C 78 % 1013,5 hPa 0,0 l/m 0 min 0 min 195 W/m 6,4 km/h (2 Bft) 97,87 %
30.04.2021 14:44 10,9 C 11,1 C 8,9 C 78 % 1013,5 hPa 0,0 l/m 0 min 0 min 205 W/m 6,4 km/h (2 Bft) 100,00 %
30.04.2021 14:46 10,9 C 11,1 C 9,5 C 78 % 1013,6 hPa 0,0 l/m 0 min 0 min 209 W/m 6,4 km/h (2 Bft) 100,00 %
30.04.2021 14:48 10,9 C 11,7 C 9,5 C 78 % 1013,6 hPa 0,0 l/m 0 min 0 min 217 W/m 6,4 km/h (2 Bft) 100,00 %
30.04.2021 14:50 10,9 C 11,7 C 9,5 C 78 % 1013,6 hPa 0,0 l/m 0 min 0 min 232 W/m 6,4 km/h (2 Bft) 97,83 %
30.04.2021 14:52 10,9 C 11,7 C 9,5 C 78 % 1013,5 hPa 0,0 l/m 0 min 0 min 242 W/m 3,2 km/h (1 Bft) 97,87 %
30.04.2021 14:54 10,9 C 11,7 C 9,5 C 78 % 1013,5 hPa 0,0 l/m 0 min 0 min 248 W/m 3,2 km/h (1 Bft) 97,87 %
30.04.2021 14:56 10,9 C 12,2 C 9,5 C 78 % 1013,5 hPa 0,0 l/m 0 min 0 min 267 W/m 6,4 km/h (2 Bft) 97,87 %
30.04.2021 14:58 10,9 C 12,2 C 9,5 C 77 % 1013,4 hPa 0,0 l/m 0 min 0 min 310 W/m 6,4 km/h (2 Bft) 97,87 %
30.04.2021 15:00 11,0 C 12,2 C 10,0 C 78 % 1013,4 hPa 0,0 l/m 2 min 0 min 373 W/m 6,4 km/h (2 Bft) 97,87 %
30.04.2021 15:02 11,0 C 12,8 C 10,0 C 77 % 1013,4 hPa 0,0 l/m 2 min 0 min 440 W/m 6,4 km/h (2 Bft) 95,65 %
30.04.2021 15:04 11,0 C 12,8 C 10,0 C 77 % 1013,3 hPa 0,0 l/m 2 min 0 min 376 W/m 9,7 km/h (2 Bft) 91,49 %
30.04.2021 15:06 11,1 C 12,8 C 10,0 C 77 % 1013,4 hPa 0,0 l/m 2 min 0 min 410 W/m 6,4 km/h (2 Bft) 95,74 %
30.04.2021 15:08 11,1 C 12,8 C 10,0 C 77 % 1013,3 hPa 0,0 l/m 0 min 0 min 338 W/m 6,4 km/h (2 Bft) 95,74 %
30.04.2021 15:10 11,1 C 12,8 C 10,0 C 77 % 1013,3 hPa 0,0 l/m 0 min 0 min 295 W/m 3,2 km/h (1 Bft) 95,74 %
30.04.2021 15:12 11,2 C 12,2 C 10,0 C 77 % 1013,3 hPa 0,0 l/m 0 min 0 min 267 W/m 6,4 km/h (2 Bft) 95,74 %
30.04.2021 15:14 11,2 C 12,2 C 10,0 C 77 % 1013,3 hPa 0,0 l/m 0 min 0 min 241 W/m 9,7 km/h (2 Bft) 93,48 %
30.04.2021 15:16 11,3 C 12,2 C 10,0 C 77 % 1013,3 hPa 0,0 l/m 0 min 0 min 219 W/m 3,2 km/h (1 Bft) 95,74 %
30.04.2021 15:18 11,4 C 12,2 C 9,5 C 77 % 1013,2 hPa 0,0 l/m 0 min 0 min 212 W/m 3,2 km/h (1 Bft) 95,74 %
30.04.2021 15:20 11,4 C 12,2 C 9,5 C 76 % 1013,2 hPa 0,0 l/m 0 min 0 min 195 W/m 6,4 km/h (2 Bft) 93,62 %
30.04.2021 15:22 11,4 C 11,7 C 9,5 C 76 % 1013,2 hPa 0,0 l/m 0 min 0 min 171 W/m 6,4 km/h (2 Bft) 95,74 %
30.04.2021 15:24 11,3 C 11,7 C 9,5 C 76 % 1013,2 hPa 0,0 l/m 0 min 0 min 156 W/m 6,4 km/h (2 Bft) 95,65 %
30.04.2021 15:26 11,3 C 11,7 C 9,5 C 76 % 1013,2 hPa 0,0 l/m 0 min 0 min 145 W/m 3,2 km/h (1 Bft) 95,74 %
30.04.2021 15:28 11,3 C 11,7 C 8,9 C 76 % 1013,1 hPa 0,0 l/m 0 min 0 min 145 W/m 3,2 km/h (1 Bft) 95,74 %
30.04.2021 15:30 11,3 C 11,7 C 8,9 C 76 % 1013,1 hPa 0,0 l/m 0 min 0 min 146 W/m 6,4 km/h (2 Bft) 93,62 %
30.04.2021 15:32 11,3 C 11,7 C 8,9 C 76 % 1013,1 hPa 0,0 l/m 0 min 0 min 144 W/m 3,2 km/h (1 Bft) 93,62 %
30.04.2021 15:34 11,3 C 11,7 C 8,9 C 76 % 1013,1 hPa 0,0 l/m 0 min 0 min 148 W/m 6,4 km/h (2 Bft) 89,36 %
30.04.2021 15:36 11,2 C 11,7 C 8,9 C 76 % 1013,1 hPa 0,0 l/m 0 min 0 min 154 W/m 3,2 km/h (1 Bft) 93,48 %
30.04.2021 15:38 11,3 C 11,7 C 8,9 C 76 % 1013,0 hPa 0,0 l/m 0 min 0 min 158 W/m 3,2 km/h (1 Bft) 91,49 %
30.04.2021 15:40 11,2 C 11,7 C 8,9 C 76 % 1013,1 hPa 0,0 l/m 0 min 0 min 161 W/m 3,2 km/h (1 Bft) 93,62 %
30.04.2021 15:42 11,2 C 11,7 C 8,9 C 76 % 1013,1 hPa 0,0 l/m 0 min 0 min 165 W/m 3,2 km/h (1 Bft) 95,74 %
30.04.2021 15:44 11,3 C 11,7 C 9,5 C 76 % 1013,1 hPa 0,0 l/m 0 min 0 min 175 W/m 3,2 km/h (1 Bft) 95,74 %
30.04.2021 15:46 11,3 C 11,7 C 9,5 C 75 % 1013,0 hPa 0,0 l/m 0 min 0 min 183 W/m 3,2 km/h (1 Bft) 95,74 %
30.04.2021 15:48 11,3 C 11,7 C 8,9 C 75 % 1013,0 hPa 0,0 l/m 0 min 0 min 195 W/m 3,2 km/h (1 Bft) 97,83 %
30.04.2021 15:50 11,3 C 12,2 C 9,5 C 75 % 1013,0 hPa 0,0 l/m 0 min 0 min 216 W/m 6,4 km/h (2 Bft) 95,74 %
30.04.2021 15:52 11,3 C 12,2 C 9,5 C 75 % 1013,0 hPa 0,0 l/m 0 min 0 min 250 W/m 6,4 km/h (2 Bft) 97,87 %
30.04.2021 15:54 11,3 C 12,2 C 9,5 C 75 % 1013,0 hPa 0,0 l/m 0 min 0 min 295 W/m 3,2 km/h (1 Bft) 97,87 %
30.04.2021 15:56 11,4 C 12,8 C 9,5 C 75 % 1013,0 hPa 0,0 l/m 2 min 0 min 343 W/m 3,2 km/h (1 Bft) 97,87 %
30.04.2021 15:58 11,4 C 13,9 C 10,0 C 75 % 1013,0 hPa 0,0 l/m 2 min 0 min 406 W/m 6,4 km/h (2 Bft) 97,87 %
30.04.2021 16:00 11,5 C 14,4 C 10,0 C 74 % 1012,9 hPa 0,0 l/m 2 min 0 min 509 W/m 9,7 km/h (2 Bft) 95,65 %
30.04.2021 16:02 11,6 C 15,0 C 10,0 C 74 % 1013,0 hPa 0,0 l/m 2 min 0 min 488 W/m 3,2 km/h (1 Bft) 97,87 %
30.04.2021 16:04 11,7 C 14,4 C 10,0 C 74 % 1013,0 hPa 0,0 l/m 2 min 0 min 359 W/m 9,7 km/h (2 Bft) 97,87 %
30.04.2021 16:06 11,8 C 13,9 C 10,0 C 73 % 1013,0 hPa 0,0 l/m 0 min 0 min 321 W/m 9,7 km/h (2 Bft) 97,87 %
30.04.2021 16:08 11,8 C 13,3 C 10,0 C 73 % 1013,0 hPa 0,0 l/m 0 min 0 min 299 W/m 9,7 km/h (2 Bft) 97,87 %
30.04.2021 16:10 11,9 C 13,3 C 10,0 C 73 % 1013,0 hPa 0,0 l/m 0 min 0 min 275 W/m 3,2 km/h (1 Bft) 97,87 %
30.04.2021 16:12 11,9 C 12,8 C 10,0 C 73 % 1013,0 hPa 0,0 l/m 0 min 0 min 263 W/m 3,2 km/h (1 Bft) 95,74 %
30.04.2021 16:14 11,9 C 12,8 C 10,0 C 73 % 1013,0 hPa 0,0 l/m 0 min 0 min 266 W/m 3,2 km/h (1 Bft) 97,83 %
30.04.2021 16:16 11,9 C 12,8 C 10,0 C 72 % 1013,0 hPa 0,0 l/m 0 min 0 min 274 W/m 9,7 km/h (2 Bft) 97,87 %
30.04.2021 16:18 11,9 C 12,8 C 10,0 C 72 % 1013,0 hPa 0,0 l/m 0 min 0 min 288 W/m 6,4 km/h (2 Bft) 97,87 %
30.04.2021 16:20 11,9 C 12,8 C 10,0 C 72 % 1012,9 hPa 0,0 l/m 0 min 0 min 290 W/m 6,4 km/h (2 Bft) 95,74 %
30.04.2021 16:22 12,0 C 13,3 C 10,0 C 71 % 1012,9 hPa 0,0 l/m 2 min 0 min 316 W/m 6,4 km/h (2 Bft) 97,87 %
30.04.2021 16:24 12,0 C 13,3 C 10,0 C 71 % 1012,9 hPa 0,0 l/m 0 min 0 min 271 W/m 3,2 km/h (1 Bft) 100,00 %
30.04.2021 16:26 12,0 C 13,3 C 10,0 C 71 % 1012,9 hPa 0,0 l/m 0 min 0 min 272 W/m 3,2 km/h (1 Bft) 95,74 %
30.04.2021 16:28 12,0 C 13,3 C 10,0 C 72 % 1012,9 hPa 0,0 l/m 0 min 0 min 280 W/m 3,2 km/h (1 Bft) 100,00 %
30.04.2021 16:30 12,0 C 13,3 C 10,0 C 71 % 1012,9 hPa 0,0 l/m 0 min 0 min 280 W/m 6,4 km/h (2 Bft) 97,87 %
30.04.2021 16:32 12,1 C 13,3 C 10,6 C 72 % 1012,8 hPa 0,0 l/m 0 min 0 min 276 W/m 6,4 km/h (2 Bft) 100,00 %
30.04.2021 16:34 12,1 C 13,3 C 10,6 C 72 % 1012,8 hPa 0,0 l/m 0 min 0 min 275 W/m 6,4 km/h (2 Bft) 100,00 %
30.04.2021 16:36 12,3 C 13,3 C 10,6 C 72 % 1012,8 hPa 0,0 l/m 0 min 0 min 279 W/m 9,7 km/h (2 Bft) 100,00 %
30.04.2021 16:38 12,3 C 13,3 C 10,6 C 72 % 1012,7 hPa 0,0 l/m 0 min 0 min 280 W/m 12,9 km/h (3 Bft) 100,00 %
30.04.2021 16:40 12,3 C 13,3 C 10,6 C 71 % 1012,8 hPa 0,0 l/m 2 min 0 min 307 W/m 6,4 km/h (2 Bft) 97,87 %
30.04.2021 16:42 12,3 C 15,0 C 10,6 C 72 % 1012,8 hPa 0,0 l/m 2 min 0 min 383 W/m 3,2 km/h (1 Bft) 100,00 %
30.04.2021 16:44 12,3 C 16,1 C 10,6 C 71 % 1012,8 hPa 0,0 l/m 2 min 0 min 642 W/m 6,4 km/h (2 Bft) 100,00 %
30.04.2021 16:46 12,4 C 16,1 C 10,6 C 71 % 1012,7 hPa 0,0 l/m 2 min 0 min 453 W/m 3,2 km/h (1 Bft) 100,00 %
30.04.2021 16:48 12,4 C 16,7 C 10,6 C 70 % 1012,7 hPa 0,0 l/m 2 min 0 min 495 W/m 6,4 km/h (2 Bft) 100,00 %
30.04.2021 16:50 12,5 C 17,2 C 10,6 C 71 % 1012,7 hPa 0,0 l/m 2 min 0 min 559 W/m 3,2 km/h (1 Bft) 100,00 %
30.04.2021 16:52 12,6 C 17,2 C 10,6 C 71 % 1012,7 hPa 0,0 l/m 2 min 0 min 591 W/m 16,1 km/h (3 Bft) 100,00 %
30.04.2021 16:54 12,7 C 16,1 C 10,6 C 71 % 1012,7 hPa 0,0 l/m 0 min 0 min 221 W/m 9,7 km/h (2 Bft) 100,00 %
30.04.2021 16:56 12,8 C 15,0 C 10,6 C 71 % 1012,7 hPa 0,0 l/m 0 min 0 min 211 W/m 9,7 km/h (2 Bft) 100,00 %
30.04.2021 16:58 12,8 C 14,4 C 10,6 C 70 % 1012,7 hPa 0,0 l/m 0 min 0 min 196 W/m 9,7 km/h (2 Bft) 100,00 %
30.04.2021 17:00 12,8 C 13,9 C 10,0 C 69 % 1012,8 hPa 0,0 l/m 0 min 0 min 180 W/m 6,4 km/h (2 Bft) 100,00 %
30.04.2021 17:02 12,7 C 13,3 C 10,0 C 70 % 1012,7 hPa 0,0 l/m 0 min 0 min 172 W/m 6,4 km/h (2 Bft) 100,00 %
30.04.2021 17:04 12,7 C 13,3 C 10,0 C 70 % 1012,7 hPa 0,0 l/m 0 min 0 min 176 W/m 3,2 km/h (1 Bft) 100,00 %
30.04.2021 17:06 12,6 C 12,8 C 10,0 C 70 % 1012,7 hPa 0,0 l/m 0 min 0 min 189 W/m 3,2 km/h (1 Bft) 100,00 %
30.04.2021 17:08 12,6 C 13,3 C 10,0 C 70 % 1012,8 hPa 0,0 l/m 0 min 0 min 192 W/m 6,4 km/h (2 Bft) 100,00 %
30.04.2021 17:10 12,6 C 12,8 C 10,0 C 70 % 1012,7 hPa 0,0 l/m 0 min 0 min 197 W/m 6,4 km/h (2 Bft) 100,00 %
30.04.2021 17:12 12,6 C 12,8 C 10,0 C 70 % 1012,8 hPa 0,0 l/m 0 min 0 min 212 W/m 6,4 km/h (2 Bft) 100,00 %
30.04.2021 17:14 12,5 C 12,8 C 9,5 C 70 % 1012,8 hPa 0,0 l/m 0 min 0 min 230 W/m 6,4 km/h (2 Bft) 100,00 %
30.04.2021 17:16 12,5 C 13,9 C 10,0 C 71 % 1012,8 hPa 0,0 l/m 2 min 0 min 269 W/m 3,2 km/h (1 Bft) 100,00 %
30.04.2021 17:18 12,5 C 15,6 C 10,0 C 71 % 1012,8 hPa 0,0 l/m 2 min 0 min 442 W/m 6,4 km/h (2 Bft) 100,00 %
30.04.2021 17:20 12,6 C 16,7 C 10,0 C 71 % 1012,8 hPa 0,0 l/m 2 min 0 min 560 W/m 12,9 km/h (3 Bft) 100,00 %
30.04.2021 17:22 12,7 C 16,7 C 10,0 C 70 % 1012,8 hPa 0,0 l/m 2 min 0 min 552 W/m 9,7 km/h (2 Bft) 100,00 %
30.04.2021 17:24 12,8 C 16,7 C 10,6 C 70 % 1012,8 hPa 0,0 l/m 2 min 0 min 473 W/m 6,4 km/h (2 Bft) 100,00 %
30.04.2021 17:26 12,8 C 16,1 C 10,6 C 70 % 1012,8 hPa 0,0 l/m 2 min 0 min 334 W/m 3,2 km/h (1 Bft) 95,74 %
30.04.2021 17:28 12,9 C 16,7 C 10,6 C 70 % 1012,8 hPa 0,0 l/m 2 min 0 min 365 W/m 3,2 km/h (1 Bft) 100,00 %
30.04.2021 17:30 13,0 C 16,7 C 11,1 C 71 % 1012,7 hPa 0,0 l/m 2 min 0 min 337 W/m 3,2 km/h (1 Bft) 97,87 %
30.04.2021 17:32 13,1 C 17,2 C 11,1 C 70 % 1012,7 hPa 0,0 l/m 2 min 0 min 307 W/m 6,4 km/h (2 Bft) 97,87 %
30.04.2021 17:34 13,1 C 17,2 C 11,1 C 69 % 1012,7 hPa 0,0 l/m 2 min 0 min 458 W/m 6,4 km/h (2 Bft) 97,87 %
30.04.2021 17:36 13,3 C 16,7 C 11,1 C 70 % 1012,7 hPa 0,0 l/m 2 min 0 min 287 W/m 6,4 km/h (2 Bft) 93,48 %
30.04.2021 17:38 13,3 C 16,1 C 10,6 C 69 % 1012,6 hPa 0,0 l/m 0 min 0 min 205 W/m 6,4 km/h (2 Bft) 97,87 %
30.04.2021 17:40 13,3 C 15,0 C 10,6 C 69 % 1012,7 hPa 0,0 l/m 0 min 0 min 193 W/m 6,4 km/h (2 Bft) 95,74 %
30.04.2021 17:42 13,2 C 13,9 C 10,6 C 68 % 1012,6 hPa 0,0 l/m 0 min 0 min 176 W/m 6,4 km/h (2 Bft) 97,87 %
30.04.2021 17:44 13,1 C 13,3 C 10,0 C 67 % 1012,7 hPa 0,0 l/m 0 min 0 min 160 W/m 6,4 km/h (2 Bft) 97,87 %
30.04.2021 17:46 13,0 C 13,3 C 10,0 C 67 % 1012,6 hPa 0,0 l/m 0 min 0 min 154 W/m 6,4 km/h (2 Bft) 95,65 %
30.04.2021 17:48 12,9 C 12,8 C 9,5 C 67 % 1012,6 hPa 0,0 l/m 0 min 0 min 150 W/m 3,2 km/h (1 Bft) 95,74 %
30.04.2021 17:50 12,9 C 12,8 C 9,5 C 67 % 1012,6 hPa 0,0 l/m 0 min 0 min 148 W/m 9,7 km/h (2 Bft) 95,74 %
30.04.2021 17:52 12,8 C 12,8 C 9,5 C 67 % 1012,7 hPa 0,0 l/m 0 min 0 min 151 W/m 6,4 km/h (2 Bft) 97,87 %
30.04.2021 17:54 12,7 C 12,8 C 9,5 C 68 % 1012,7 hPa 0,0 l/m 0 min 0 min 155 W/m 6,4 km/h (2 Bft) 96,30 %
30.04.2021 17:56 12,6 C 12,8 C 9,5 C 68 % 1012,6 hPa 0,0 l/m 0 min 0 min 156 W/m 3,2 km/h (1 Bft) 95,74 %
30.04.2021 17:58 12,6 C 12,8 C 9,5 C 67 % 1012,6 hPa 0,0 l/m 0 min 0 min 156 W/m 3,2 km/h (1 Bft) 97,87 %
30.04.2021 18:00 12,5 C 12,8 C 9,5 C 68 % 1012,7 hPa 0,0 l/m 0 min 0 min 159 W/m 3,2 km/h (1 Bft) 97,83 %
30.04.2021 18:02 12,5 C 12,8 C 8,9 C 68 % 1012,6 hPa 0,0 l/m 0 min 0 min 167 W/m 3,2 km/h (1 Bft) 97,87 %
30.04.2021 18:04 12,5 C 13,3 C 9,5 C 68 % 1012,6 hPa 0,0 l/m 0 min 0 min 190 W/m 3,2 km/h (1 Bft) 97,87 %
30.04.2021 18:08 12,6 C 16,1 C 10,0 C 70 % 1012,6 hPa 0,0 l/m 4 min 0 min 276 W/m 3,2 km/h (1 Bft) 94,68 %
30.04.2021 18:10 12,7 C 16,7 C 10,6 C 70 % 1012,6 hPa 0,0 l/m 2 min 0 min 337 W/m 3,2 km/h (1 Bft) 91,49 %
30.04.2021 18:12 12,9 C 17,8 C 10,6 C 70 % 1012,6 hPa 0,0 l/m 2 min 0 min 372 W/m 3,2 km/h (1 Bft) 97,83 %
30.04.2021 18:14 13,1 C 18,3 C 10,6 C 69 % 1012,6 hPa 0,0 l/m 2 min 0 min 394 W/m 3,2 km/h (1 Bft) 95,74 %
30.04.2021 18:16 13,2 C 17,8 C 10,6 C 67 % 1012,5 hPa 0,0 l/m 2 min 0 min 394 W/m 6,4 km/h (2 Bft) 95,74 %
30.04.2021 18:18 13,3 C 18,3 C 10,6 C 66 % 1012,5 hPa 0,0 l/m 2 min 0 min 384 W/m 3,2 km/h (1 Bft) 95,74 %
30.04.2021 18:20 13,3 C 18,3 C 10,6 C 66 % 1012,5 hPa 0,0 l/m 2 min 0 min 375 W/m 3,2 km/h (1 Bft) 93,62 %
30.04.2021 18:22 13,4 C 18,3 C 10,6 C 66 % 1012,4 hPa 0,0 l/m 2 min 0 min 320 W/m 3,2 km/h (1 Bft) 95,65 %
30.04.2021 18:24 13,5 C 18,9 C 10,6 C 65 % 1012,5 hPa 0,0 l/m 2 min 0 min 334 W/m 6,4 km/h (2 Bft) 95,74 %
30.04.2021 18:26 13,5 C 19,4 C 10,6 C 65 % 1012,4 hPa 0,0 l/m 2 min 0 min 363 W/m 0,0 km/h (0 Bft) 95,74 %
30.04.2021 18:28 13,6 C 19,4 C 10,6 C 65 % 1012,4 hPa 0,0 l/m 2 min 0 min 363 W/m 3,2 km/h (1 Bft) 95,74 %
30.04.2021 18:30 13,6 C 19,4 C 10,6 C 64 % 1012,4 hPa 0,0 l/m 2 min 0 min 340 W/m 3,2 km/h (1 Bft) 95,74 %
30.04.2021 18:32 13,7 C 19,4 C 10,6 C 64 % 1012,4 hPa 0,0 l/m 2 min 0 min 316 W/m 3,2 km/h (1 Bft) 93,62 %
30.04.2021 18:34 13,7 C 19,4 C 10,6 C 64 % 1012,4 hPa 0,0 l/m 2 min 0 min 327 W/m 6,4 km/h (2 Bft) 93,62 %
30.04.2021 18:36 13,7 C 19,4 C 10,6 C 64 % 1012,4 hPa 0,0 l/m 2 min 0 min 346 W/m 6,4 km/h (2 Bft) 95,65 %
30.04.2021 18:38 13,7 C 20,0 C 10,6 C 64 % 1012,5 hPa 0,0 l/m 2 min 0 min 352 W/m 6,4 km/h (2 Bft) 95,74 %
30.04.2021 18:40 13,6 C 20,0 C 10,6 C 64 % 1012,5 hPa 0,0 l/m 2 min 0 min 347 W/m 6,4 km/h (2 Bft) 95,74 %
30.04.2021 18:42 13,6 C 20,0 C 10,6 C 64 % 1012,4 hPa 0,0 l/m 2 min 0 min 337 W/m 6,4 km/h (2 Bft) 95,74 %
30.04.2021 18:44 13,6 C 20,0 C 10,6 C 65 % 1012,5 hPa 0,0 l/m 2 min 0 min 323 W/m 3,2 km/h (1 Bft) 95,74 %
30.04.2021 18:46 13,6 C 18,9 C 10,6 C 65 % 1012,4 hPa 0,0 l/m 2 min 0 min 297 W/m 3,2 km/h (1 Bft) 95,65 %
30.04.2021 18:48 13,5 C 17,2 C 10,0 C 64 % 1012,4 hPa 0,0 l/m 2 min 0 min 294 W/m 6,4 km/h (2 Bft) 93,62 %
30.04.2021 18:50 13,5 C 16,1 C 10,0 C 64 % 1012,4 hPa 0,0 l/m 2 min 0 min 281 W/m 3,2 km/h (1 Bft) 95,74 %
30.04.2021 18:52 13,5 C 15,0 C 10,0 C 64 % 1012,4 hPa 0,0 l/m 2 min 0 min 271 W/m 3,2 km/h (1 Bft) 95,74 %
30.04.2021 18:54 13,4 C 14,4 C 10,0 C 64 % 1012,4 hPa 0,0 l/m 2 min 0 min 247 W/m 6,4 km/h (2 Bft) 93,62 %
30.04.2021 18:56 13,3 C 13,9 C 10,0 C 65 % 1012,4 hPa 0,0 l/m 2 min 0 min 234 W/m 3,2 km/h (1 Bft) 95,74 %
30.04.2021 18:58 13,3 C 13,9 C 9,5 C 65 % 1012,3 hPa 0,0 l/m 2 min 0 min 233 W/m 6,4 km/h (2 Bft) 95,74 %
30.04.2021 19:00 13,2 C 13,9 C 9,5 C 66 % 1012,4 hPa 0,0 l/m 2 min 0 min 220 W/m 3,2 km/h (1 Bft) 97,83 %
30.04.2021 19:02 13,1 C 13,3 C 9,5 C 66 % 1012,4 hPa 0,0 l/m 2 min 0 min 191 W/m 3,2 km/h (1 Bft) 97,87 %
30.04.2021 19:04 13,1 C 13,3 C 9,5 C 65 % 1012,4 hPa 0,0 l/m 2 min 0 min 164 W/m 6,4 km/h (2 Bft) 100,00 %
30.04.2021 19:06 13,0 C 13,3 C 9,5 C 66 % 1012,4 hPa 0,0 l/m 0 min 0 min 123 W/m 3,2 km/h (1 Bft) 100,00 %
30.04.2021 19:08 13,0 C 12,8 C 9,5 C 66 % 1012,4 hPa 0,0 l/m 0 min 0 min 93 W/m 3,2 km/h (1 Bft) 100,00 %
30.04.2021 19:10 13,0 C 12,8 C 9,5 C 66 % 1012,4 hPa 0,0 l/m 0 min 0 min 88 W/m 3,2 km/h (1 Bft) 100,00 %
30.04.2021 19:12 12,9 C 12,2 C 9,5 C 66 % 1012,4 hPa 0,0 l/m 0 min 0 min 90 W/m 6,4 km/h (2 Bft) 100,00 %
30.04.2021 19:14 12,8 C 12,2 C 9,5 C 67 % 1012,4 hPa 0,0 l/m 0 min 0 min 88 W/m 3,2 km/h (1 Bft) 100,00 %
30.04.2021 19:16 12,8 C 12,8 C 9,5 C 67 % 1012,4 hPa 0,0 l/m 0 min 0 min 84 W/m 3,2 km/h (1 Bft) 100,00 %
30.04.2021 19:18 12,7 C 12,8 C 9,5 C 67 % 1012,4 hPa 0,0 l/m 0 min 0 min 80 W/m 3,2 km/h (1 Bft) 100,00 %
30.04.2021 19:20 12,6 C 12,2 C 9,5 C 66 % 1012,4 hPa 0,0 l/m 0 min 0 min 77 W/m 6,4 km/h (2 Bft) 97,87 %
30.04.2021 19:22 12,6 C 12,2 C 9,5 C 65 % 1012,4 hPa 0,0 l/m 0 min 0 min 77 W/m 3,2 km/h (1 Bft) 100,00 %
30.04.2021 19:24 12,6 C 12,2 C 9,5 C 65 % 1012,4 hPa 0,0 l/m 0 min 0 min 75 W/m 0,0 km/h (0 Bft) 100,00 %
30.04.2021 19:26 12,5 C 12,2 C 9,5 C 65 % 1012,4 hPa 0,0 l/m 0 min 0 min 72 W/m 3,2 km/h (1 Bft) 100,00 %
30.04.2021 19:28 12,5 C 12,2 C 9,5 C 66 % 1012,4 hPa 0,0 l/m 0 min 0 min 69 W/m 0,0 km/h (0 Bft) 100,00 %
30.04.2021 19:30 12,5 C 12,2 C 8,9 C 66 % 1012,3 hPa 0,0 l/m 0 min 0 min 69 W/m 3,2 km/h (1 Bft) 97,87 %
30.04.2021 19:32 12,5 C 12,2 C 8,9 C 67 % 1012,4 hPa 0,0 l/m 0 min 0 min 69 W/m 6,4 km/h (2 Bft) 100,00 %
30.04.2021 19:34 12,5 C 11,7 C 8,9 C 68 % 1012,4 hPa 0,0 l/m 0 min 0 min 69 W/m 3,2 km/h (1 Bft) 100,00 %
30.04.2021 19:36 12,4 C 11,7 C 8,9 C 68 % 1012,4 hPa 0,0 l/m 0 min 0 min 68 W/m 3,2 km/h (1 Bft) 100,00 %
30.04.2021 19:38 12,4 C 11,7 C 8,9 C 68 % 1012,4 hPa 0,0 l/m 0 min 0 min 67 W/m 6,4 km/h (2 Bft) 97,87 %
30.04.2021 19:40 12,3 C 11,7 C 8,9 C 68 % 1012,4 hPa 0,0 l/m 0 min 0 min 64 W/m 3,2 km/h (1 Bft) 100,00 %
30.04.2021 19:42 12,3 C 11,7 C 8,9 C 68 % 1012,4 hPa 0,0 l/m 0 min 0 min 62 W/m 6,4 km/h (2 Bft) 97,87 %
30.04.2021 19:44 12,2 C 11,7 C 8,4 C 68 % 1012,4 hPa 0,0 l/m 0 min 0 min 60 W/m 3,2 km/h (1 Bft) 100,00 %
30.04.2021 19:46 12,1 C 11,7 C 8,4 C 68 % 1012,4 hPa 0,0 l/m 0 min 0 min 57 W/m 6,4 km/h (2 Bft) 97,87 %
30.04.2021 19:48 12,1 C 11,1 C 8,4 C 68 % 1012,4 hPa 0,0 l/m 0 min 0 min 55 W/m 6,4 km/h (2 Bft) 97,83 %
30.04.2021 19:50 12,1 C 11,1 C 8,4 C 68 % 1012,4 hPa 0,0 l/m 0 min 0 min 53 W/m 3,2 km/h (1 Bft) 97,87 %
30.04.2021 19:52 12,1 C 11,1 C 8,4 C 69 % 1012,5 hPa 0,0 l/m 0 min 0 min 50 W/m 3,2 km/h (1 Bft) 100,00 %
30.04.2021 19:54 12,0 C 11,1 C 8,4 C 69 % 1012,5 hPa 0,0 l/m 0 min 0 min 48 W/m 3,2 km/h (1 Bft) 100,00 %
30.04.2021 19:56 12,0 C 11,1 C 8,4 C 68 % 1012,5 hPa 0,0 l/m 0 min 0 min 46 W/m 3,2 km/h (1 Bft) 95,74 %
30.04.2021 19:58 12,0 C 11,1 C 8,4 C 69 % 1012,5 hPa 0,0 l/m 0 min 0 min 44 W/m 3,2 km/h (1 Bft) 100,00 %
30.04.2021 20:00 11,9 C 11,1 C 8,4 C 70 % 1012,5 hPa 0,0 l/m 0 min 0 min 42 W/m 0,0 km/h (0 Bft) 100,00 %
30.04.2021 20:02 11,9 C 10,6 C 7,8 C 70 % 1012,5 hPa 0,0 l/m 0 min 0 min 40 W/m 0,0 km/h (0 Bft) 93,62 %
30.04.2021 20:04 11,8 C 10,6 C 7,8 C 70 % 1012,6 hPa 0,0 l/m 0 min 0 min 38 W/m 0,0 km/h (0 Bft) 97,87 %
30.04.2021 20:06 11,8 C 10,6 C 7,8 C 70 % 1012,6 hPa 0,0 l/m 0 min 0 min 36 W/m 3,2 km/h (1 Bft) 97,87 %
30.04.2021 20:08 11,7 C 10,6 C 7,8 C 70 % 1012,6 hPa 0,0 l/m 0 min 0 min 33 W/m 0,0 km/h (0 Bft) 97,87 %
30.04.2021 20:10 11,6 C 10,6 C 7,8 C 70 % 1012,6 hPa 0,0 l/m 0 min 0 min 31 W/m 0,0 km/h (0 Bft) 95,65 %
30.04.2021 20:12 11,6 C 10,6 C 7,8 C 70 % 1012,7 hPa 0,0 l/m 0 min 0 min 27 W/m 0,0 km/h (0 Bft) 95,74 %
30.04.2021 20:14 11,6 C 10,6 C 7,8 C 71 % 1012,7 hPa 0,0 l/m 0 min 0 min 25 W/m 0,0 km/h (0 Bft) 97,37 %
30.04.2021 20:16 11,5 C 10,0 C 7,8 C 71 % 1012,7 hPa 0,0 l/m 0 min 0 min 22 W/m 0,0 km/h (0 Bft) 95,83 %
30.04.2021 20:18 11,5 C 10,0 C 7,8 C 70 % 1012,6 hPa 0,0 l/m 0 min 0 min 21 W/m 0,0 km/h (0 Bft) 97,87 %
30.04.2021 20:20 11,5 C 10,0 C 7,3 C 71 % 1012,7 hPa 0,0 l/m 0 min 0 min 19 W/m 0,0 km/h (0 Bft) 97,87 %
30.04.2021 20:22 11,5 C 10,0 C 7,3 C 72 % 1012,7 hPa 0,0 l/m 0 min 0 min 18 W/m 0,0 km/h (0 Bft) 97,87 %
30.04.2021 20:24 11,5 C 9,4 C 7,3 C 72 % 1012,7 hPa 0,0 l/m 0 min 0 min 16 W/m 0,0 km/h (0 Bft) 95,65 %
30.04.2021 20:26 11,4 C 9,4 C 7,3 C 72 % 1012,7 hPa 0,0 l/m 0 min 0 min 16 W/m 0,0 km/h (0 Bft) 97,87 %
30.04.2021 20:28 11,4 C 9,4 C 7,3 C 73 % 1012,7 hPa 0,0 l/m 0 min 0 min 16 W/m 0,0 km/h (0 Bft) 95,74 %
30.04.2021 20:30 11,4 C 9,4 C 7,3 C 73 % 1012,7 hPa 0,0 l/m 0 min 0 min 16 W/m 0,0 km/h (0 Bft) 95,74 %
30.04.2021 20:32 11,3 C 9,4 C 6,7 C 73 % 1012,7 hPa 0,0 l/m 0 min 0 min 15 W/m 0,0 km/h (0 Bft) 93,62 %
30.04.2021 20:34 11,3 C 9,4 C 6,7 C 74 % 1012,7 hPa 0,0 l/m 0 min 0 min 14 W/m 0,0 km/h (0 Bft) 95,74 %
30.04.2021 20:36 11,2 C 9,4 C 6,7 C 74 % 1012,7 hPa 0,0 l/m 0 min 0 min 13 W/m 0,0 km/h (0 Bft) 93,48 %
30.04.2021 20:38 11,1 C 9,4 C 6,7 C 73 % 1012,7 hPa 0,0 l/m 0 min 0 min 12 W/m 0,0 km/h (0 Bft) 95,74 %
30.04.2021 20:40 11,1 C 9,4 C 6,7 C 72 % 1012,7 hPa 0,0 l/m 0 min 0 min 11 W/m 0,0 km/h (0 Bft) 93,62 %
30.04.2021 20:42 11,0 C 9,4 C 6,7 C 72 % 1012,7 hPa 0,0 l/m 0 min 0 min 10 W/m 0,0 km/h (0 Bft) 95,74 %
30.04.2021 20:44 10,9 C 9,4 C 6,7 C 72 % 1012,7 hPa 0,0 l/m 0 min 0 min 8 W/m 0,0 km/h (0 Bft) 95,74 %
30.04.2021 20:46 10,9 C 8,9 C 6,7 C 72 % 1012,8 hPa 0,0 l/m 0 min 0 min 7 W/m 0,0 km/h (0 Bft) 93,62 %
30.04.2021 20:48 10,8 C 8,9 C 6,7 C 73 % 1012,9 hPa 0,0 l/m 0 min 0 min 7 W/m 9,7 km/h (2 Bft) 95,65 %
30.04.2021 20:50 10,7 C 8,9 C 6,7 C 73 % 1012,9 hPa 0,0 l/m 0 min 0 min 6 W/m 9,7 km/h (2 Bft) 93,62 %
30.04.2021 20:52 10,6 C 9,4 C 6,7 C 74 % 1013,0 hPa 0,0 l/m 0 min 0 min 5 W/m 3,2 km/h (1 Bft) 95,74 %
30.04.2021 20:54 10,5 C 9,4 C 6,7 C 74 % 1013,0 hPa 0,0 l/m 0 min 0 min 4 W/m 12,9 km/h (3 Bft) 97,87 %
30.04.2021 20:56 10,5 C 9,4 C 6,7 C 75 % 1013,0 hPa 0,0 l/m 0 min 0 min 0 W/m 9,7 km/h (2 Bft) 95,74 %
30.04.2021 20:58 10,4 C 9,4 C 6,7 C 75 % 1013,1 hPa 0,0 l/m 0 min 0 min 0 W/m 12,9 km/h (3 Bft) 97,87 %
30.04.2021 21:00 10,4 C 9,4 C 6,7 C 76 % 1013,1 hPa 0,0 l/m 0 min 0 min 0 W/m 9,7 km/h (2 Bft) 100,00 %
30.04.2021 21:02 10,3 C 8,9 C 6,7 C 76 % 1013,1 hPa 0,0 l/m 0 min 0 min 0 W/m 9,7 km/h (2 Bft) 95,74 %
30.04.2021 21:04 10,3 C 9,4 C 6,7 C 76 % 1013,1 hPa 0,0 l/m 0 min 0 min 0 W/m 9,7 km/h (2 Bft) 100,00 %
30.04.2021 21:06 10,2 C 8,9 C 6,7 C 77 % 1013,1 hPa 0,0 l/m 0 min 0 min 0 W/m 9,7 km/h (2 Bft) 93,62 %
30.04.2021 21:08 10,1 C 9,4 C 6,7 C 77 % 1013,2 hPa 0,0 l/m 0 min 0 min 0 W/m 6,4 km/h (2 Bft) 100,00 %
30.04.2021 21:10 10,1 C 9,4 C 6,7 C 77 % 1013,3 hPa 0,0 l/m 0 min 0 min 0 W/m 6,4 km/h (2 Bft) 100,00 %
30.04.2021 21:12 10,0 C 8,9 C 6,7 C 77 % 1013,3 hPa 0,0 l/m 0 min 0 min 0 W/m 6,4 km/h (2 Bft) 100,00 %
30.04.2021 21:14 10,0 C 8,9 C 6,7 C 78 % 1013,3 hPa 0,0 l/m 0 min 0 min 0 W/m 3,2 km/h (1 Bft) 97,87 %
30.04.2021 21:16 9,9 C 8,9 C 6,1 C 78 % 1013,3 hPa 0,0 l/m 0 min 0 min 0 W/m 3,2 km/h (1 Bft) 97,87 %
30.04.2021 21:18 9,9 C 8,9 C 6,1 C 78 % 1013,3 hPa 0,0 l/m 0 min 0 min 0 W/m 0,0 km/h (0 Bft) 55,56 %
30.04.2021 21:20 9,8 C 8,9 C 6,1 C 79 % 1013,3 hPa 0,0 l/m 0 min 0 min 0 W/m 3,2 km/h (1 Bft) 100,00 %
30.04.2021 21:22 9,8 C 8,3 C 6,1 C 79 % 1013,4 hPa 0,0 l/m 0 min 0 min 0 W/m 0,0 km/h (0 Bft) 100,00 %
30.04.2021 21:24 9,8 C 8,3 C 6,1 C 79 % 1013,4 hPa 0,0 l/m 0 min 0 min 0 W/m 3,2 km/h (1 Bft) 100,00 %
30.04.2021 21:26 9,7 C 8,3 C 6,1 C 79 % 1013,4 hPa 0,0 l/m 0 min 0 min 0 W/m 6,4 km/h (2 Bft) 97,87 %
30.04.2021 21:28 9,7 C 8,3 C 6,1 C 80 % 1013,5 hPa 0,0 l/m 0 min 0 min 0 W/m 6,4 km/h (2 Bft) 100,00 %
30.04.2021 21:30 9,6 C 8,3 C 6,1 C 79 % 1013,5 hPa 0,0 l/m 0 min 0 min 0 W/m 6,4 km/h (2 Bft) 100,00 %
30.04.2021 21:32 9,6 C 8,3 C 6,1 C 80 % 1013,5 hPa 0,0 l/m 0 min 0 min 0 W/m 3,2 km/h (1 Bft) 100,00 %
30.04.2021 21:34 9,5 C 8,3 C 6,1 C 80 % 1013,5 hPa 0,0 l/m 0 min 0 min 0 W/m 9,7 km/h (2 Bft) 100,00 %
30.04.2021 21:36 9,5 C 8,3 C 6,1 C 81 % 1013,5 hPa 0,0 l/m 0 min 0 min 0 W/m 3,2 km/h (1 Bft) 100,00 %
30.04.2021 21:38 9,5 C 8,3 C 6,1 C 81 % 1013,5 hPa 0,0 l/m 0 min 0 min 0 W/m 3,2 km/h (1 Bft) 100,00 %
30.04.2021 21:40 9,4 C 8,3 C 6,1 C 81 % 1013,4 hPa 0,0 l/m 0 min 0 min 0 W/m 3,2 km/h (1 Bft) 100,00 %
30.04.2021 21:42 9,4 C 8,3 C 6,1 C 81 % 1013,5 hPa 0,0 l/m 0 min 0 min 0 W/m 3,2 km/h (1 Bft) 100,00 %
30.04.2021 21:44 9,4 C 8,3 C 6,1 C 82 % 1013,5 hPa 0,0 l/m 0 min 0 min 0 W/m 3,2 km/h (1 Bft) 100,00 %
30.04.2021 21:46 9,3 C 8,3 C 6,1 C 82 % 1013,5 hPa 0,0 l/m 0 min 0 min 0 W/m 3,2 km/h (1 Bft) 100,00 %
30.04.2021 21:48 9,3 C 8,3 C 6,1 C 82 % 1013,5 hPa 0,0 l/m 0 min 0 min 0 W/m 3,2 km/h (1 Bft) 100,00 %
30.04.2021 21:50 9,3 C 8,3 C 5,6 C 82 % 1013,5 hPa 0,0 l/m 0 min 0 min 0 W/m 3,2 km/h (1 Bft) 100,00 %
30.04.2021 21:52 9,2 C 7,8 C 5,6 C 82 % 1013,5 hPa 0,0 l/m 0 min 0 min 0 W/m 6,4 km/h (2 Bft) 100,00 %
30.04.2021 21:54 9,1 C 7,8 C 5,6 C 82 % 1013,6 hPa 0,0 l/m 0 min 0 min 0 W/m 3,2 km/h (1 Bft) 100,00 %
30.04.2021 21:56 9,1 C 7,8 C 5,6 C 83 % 1013,6 hPa 0,0 l/m 0 min 0 min 0 W/m 3,2 km/h (1 Bft) 100,00 %
30.04.2021 21:58 9,0 C 7,8 C 5,6 C 83 % 1013,6 hPa 0,0 l/m 0 min 0 min 0 W/m 6,4 km/h (2 Bft) 95,65 %
30.04.2021 22:00 9,0 C 7,8 C 5,6 C 83 % 1013,6 hPa 0,0 l/m 0 min 0 min 0 W/m 3,2 km/h (1 Bft) 100,00 %
30.04.2021 22:02 9,0 C 7,8 C 5,6 C 83 % 1013,7 hPa 0,0 l/m 0 min 0 min 0 W/m 3,2 km/h (1 Bft) 100,00 %
30.04.2021 22:04 9,0 C 7,8 C 5,6 C 83 % 1013,7 hPa 0,0 l/m 0 min 0 min 0 W/m 3,2 km/h (1 Bft) 97,87 %
30.04.2021 22:06 9,0 C 7,8 C 5,6 C 84 % 1013,7 hPa 0,0 l/m 0 min 0 min 0 W/m 0,0 km/h (0 Bft) 100,00 %
30.04.2021 22:08 8,9 C 7,8 C 5,6 C 84 % 1013,7 hPa 0,0 l/m 0 min 0 min 0 W/m 3,2 km/h (1 Bft) 95,74 %
30.04.2021 22:10 8,9 C 7,8 C 5,6 C 84 % 1013,7 hPa 0,0 l/m 0 min 0 min 0 W/m 6,4 km/h (2 Bft) 97,83 %
30.04.2021 22:12 8,9 C 7,8 C 5,6 C 84 % 1013,7 hPa 0,0 l/m 0 min 0 min 0 W/m 3,2 km/h (1 Bft) 93,62 %
30.04.2021 22:14 8,9 C 7,8 C 5,6 C 84 % 1013,8 hPa 0,0 l/m 0 min 0 min 0 W/m 3,2 km/h (1 Bft) 95,74 %
30.04.2021 22:16 8,9 C 7,8 C 5,6 C 84 % 1013,7 hPa 0,0 l/m 0 min 0 min 0 W/m 0,0 km/h (0 Bft) 97,87 %
30.04.2021 22:18 8,9 C 8,3 C 5,6 C 85 % 1013,8 hPa 0,0 l/m 0 min 0 min 0 W/m 3,2 km/h (1 Bft) 97,87 %
30.04.2021 22:20 8,9 C 7,8 C 5,6 C 85 % 1013,7 hPa 0,0 l/m 0 min 0 min 0 W/m 0,0 km/h (0 Bft) 97,87 %
30.04.2021 22:22 8,9 C 7,8 C 5,6 C 85 % 1013,8 hPa 0,0 l/m 0 min 0 min 0 W/m 0,0 km/h (0 Bft) 95,65 %
30.04.2021 22:24 8,9 C 7,8 C 5,6 C 86 % 1013,7 hPa 0,0 l/m 0 min 0 min 0 W/m 3,2 km/h (1 Bft) 97,87 %
30.04.2021 22:26 8,9 C 8,3 C 5,6 C 86 % 1013,8 hPa 0,0 l/m 0 min 0 min 0 W/m 3,2 km/h (1 Bft) 97,87 %
30.04.2021 22:28 8,9 C 8,3 C 5,6 C 86 % 1013,8 hPa 0,0 l/m 0 min 0 min 0 W/m 3,2 km/h (1 Bft) 97,87 %
30.04.2021 22:30 8,9 C 8,3 C 5,6 C 86 % 1013,7 hPa 0,0 l/m 0 min 0 min 0 W/m 3,2 km/h (1 Bft) 95,74 %
30.04.2021 22:32 8,9 C 7,8 C 5,6 C 86 % 1013,7 hPa 0,0 l/m 0 min 0 min 0 W/m 3,2 km/h (1 Bft) 95,74 %
30.04.2021 22:34 8,8 C 7,8 C 5,6 C 86 % 1013,7 hPa 0,0 l/m 0 min 0 min 0 W/m 3,2 km/h (1 Bft) 95,65 %
30.04.2021 22:36 8,8 C 7,8 C 5,6 C 86 % 1013,7 hPa 0,0 l/m 0 min 0 min 0 W/m 0,0 km/h (0 Bft) 95,74 %
30.04.2021 22:38 8,8 C 7,8 C 5,6 C 86 % 1013,7 hPa 0,0 l/m 0 min 0 min 0 W/m 0,0 km/h (0 Bft) 95,74 %
30.04.2021 22:40 8,8 C 7,8 C 5,6 C 86 % 1013,7 hPa 0,0 l/m 0 min 0 min 0 W/m 0,0 km/h (0 Bft) 97,87 %
30.04.2021 22:42 8,8 C 7,8 C 5,6 C 86 % 1013,7 hPa 0,0 l/m 0 min 0 min 0 W/m 3,2 km/h (1 Bft) 93,62 %
30.04.2021 22:44 8,8 C 7,8 C 5,6 C 86 % 1013,7 hPa 0,0 l/m 0 min 0 min 0 W/m 3,2 km/h (1 Bft) 95,74 %
30.04.2021 22:46 8,8 C 7,8 C 5,6 C 87 % 1013,7 hPa 0,0 l/m 0 min 0 min 0 W/m 0,0 km/h (0 Bft) 95,65 %
30.04.2021 22:48 8,8 C 7,8 C 5,6 C 87 % 1013,8 hPa 0,0 l/m 0 min 0 min 0 W/m 0,0 km/h (0 Bft) 95,74 %
30.04.2021 22:50 8,8 C 7,8 C 6,1 C 87 % 1013,8 hPa 0,0 l/m 0 min 0 min 0 W/m 0,0 km/h (0 Bft) 95,74 %
30.04.2021 22:52 8,8 C 7,8 C 5,6 C 87 % 1013,8 hPa 0,0 l/m 0 min 0 min 0 W/m 0,0 km/h (0 Bft) 93,62 %
30.04.2021 22:54 8,8 C 7,8 C 6,1 C 87 % 1013,8 hPa 0,0 l/m 0 min 0 min 0 W/m 0,0 km/h (0 Bft) 93,62 %
30.04.2021 22:56 8,8 C 7,8 C 5,6 C 87 % 1013,8 hPa 0,0 l/m 0 min 0 min 0 W/m 0,0 km/h (0 Bft) 95,74 %
30.04.2021 22:58 8,8 C 7,8 C 5,6 C 87 % 1013,8 hPa 0,0 l/m 0 min 0 min 0 W/m 3,2 km/h (1 Bft) 93,48 %
30.04.2021 23:00 8,8 C 7,8 C 5,6 C 87 % 1013,8 hPa 0,0 l/m 0 min 0 min 0 W/m 3,2 km/h (1 Bft) 95,74 %
30.04.2021 23:02 8,7 C 7,8 C 5,6 C 87 % 1013,7 hPa 0,0 l/m 0 min 0 min 0 W/m 0,0 km/h (0 Bft) 97,87 %
30.04.2021 23:04 8,7 C 7,8 C 5,6 C 87 % 1013,8 hPa 0,0 l/m 0 min 0 min 0 W/m 0,0 km/h (0 Bft) 95,74 %
30.04.2021 23:06 8,7 C 7,8 C 5,6 C 87 % 1013,8 hPa 0,0 l/m 0 min 0 min 0 W/m 3,2 km/h (1 Bft) 95,74 %
30.04.2021 23:08 8,7 C 7,8 C 6,1 C 87 % 1013,8 hPa 0,0 l/m 0 min 0 min 0 W/m 3,2 km/h (1 Bft) 95,74 %
30.04.2021 23:10 8,6 C 7,8 C 5,6 C 87 % 1013,8 hPa 0,0 l/m 0 min 0 min 0 W/m 6,4 km/h (2 Bft) 95,65 %
30.04.2021 23:12 8,6 C 7,8 C 5,6 C 87 % 1013,8 hPa 0,0 l/m 0 min 0 min 0 W/m 3,2 km/h (1 Bft) 95,74 %
30.04.2021 23:14 8,6 C 7,8 C 6,1 C 87 % 1013,8 hPa 0,0 l/m 0 min 0 min 0 W/m 0,0 km/h (0 Bft) 97,87 %
30.04.2021 23:16 8,6 C 7,8 C 5,6 C 87 % 1013,8 hPa 0,0 l/m 0 min 0 min 0 W/m 3,2 km/h (1 Bft) 97,87 %
30.04.2021 23:18 8,6 C 7,8 C 6,1 C 87 % 1013,9 hPa 0,0 l/m 0 min 0 min 0 W/m 3,2 km/h (1 Bft) 95,74 %
30.04.2021 23:20 8,6 C 7,8 C 6,1 C 87 % 1013,8 hPa 0,0 l/m 0 min 0 min 0 W/m 3,2 km/h (1 Bft) 97,83 %
30.04.2021 23:22 8,6 C 7,8 C 5,6 C 87 % 1013,9 hPa 0,0 l/m 0 min 0 min 0 W/m 0,0 km/h (0 Bft) 97,87 %
30.04.2021 23:24 8,6 C 7,8 C 6,1 C 87 % 1013,9 hPa 0,0 l/m 0 min 0 min 0 W/m 0,0 km/h (0 Bft) 95,74 %
30.04.2021 23:26 8,6 C 7,8 C 5,6 C 87 % 1014,0 hPa 0,0 l/m 0 min 0 min 0 W/m 0,0 km/h (0 Bft) 91,49 %
30.04.2021 23:28 8,6 C 7,8 C 5,6 C 87 % 1014,0 hPa 0,0 l/m 0 min 0 min 0 W/m 0,0 km/h (0 Bft) 95,74 %
30.04.2021 23:30 8,6 C 7,8 C 5,6 C 87 % 1013,9 hPa 0,0 l/m 0 min 0 min 0 W/m 3,2 km/h (1 Bft) 95,74 %
30.04.2021 23:32 8,6 C 7,8 C 6,1 C 87 % 1014,0 hPa 0,0 l/m 0 min 0 min 0 W/m 3,2 km/h (1 Bft) 95,74 %
30.04.2021 23:34 8,6 C 7,8 C 6,1 C 87 % 1014,0 hPa 0,0 l/m 0 min 0 min 0 W/m 3,2 km/h (1 Bft) 95,74 %
30.04.2021 23:36 8,6 C 7,8 C 6,1 C 87 % 1014,0 hPa 0,0 l/m 0 min 0 min 0 W/m 3,2 km/h (1 Bft) 95,74 %
30.04.2021 23:38 8,6 C 7,8 C 6,1 C 87 % 1014,0 hPa 0,0 l/m 0 min 0 min 0 W/m 0,0 km/h (0 Bft) 95,74 %
30.04.2021 23:40 8,6 C 7,8 C 6,1 C 87 % 1014,0 hPa 0,0 l/m 0 min 0 min 0 W/m 3,2 km/h (1 Bft) 95,74 %
30.04.2021 23:42 8,6 C 7,8 C 6,1 C 87 % 1014,0 hPa 0,0 l/m 0 min 0 min 0 W/m 0,0 km/h (0 Bft) 97,83 %
30.04.2021 23:44 8,6 C 7,8 C 6,1 C 87 % 1014,0 hPa 0,0 l/m 0 min 0 min 0 W/m 0,0 km/h (0 Bft) 95,74 %
30.04.2021 23:46 8,6 C 7,8 C 6,1 C 87 % 1014,0 hPa 0,0 l/m 0 min 0 min 0 W/m 0,0 km/h (0 Bft) 95,74 %
30.04.2021 23:48 8,6 C 7,8 C 6,1 C 87 % 1014,0 hPa 0,0 l/m 0 min 0 min 0 W/m 3,2 km/h (1 Bft) 95,74 %
30.04.2021 23:50 8,6 C 7,8 C 5,6 C 87 % 1014,1 hPa 0,0 l/m 0 min 0 min 0 W/m 3,2 km/h (1 Bft) 97,87 %
30.04.2021 23:52 8,6 C 7,8 C 5,6 C 87 % 1014,1 hPa 0,0 l/m 0 min 0 min 0 W/m 0,0 km/h (0 Bft) 97,87 %
30.04.2021 23:54 8,6 C 7,8 C 5,6 C 87 % 1014,1 hPa 0,0 l/m 0 min 0 min 0 W/m 0,0 km/h (0 Bft) 97,83 %
30.04.2021 23:56 8,6 C 7,8 C 5,6 C 87 % 1014,1 hPa 0,0 l/m 0 min 0 min 0 W/m 0,0 km/h (0 Bft) 95,74 %
30.04.2021 23:58 8,6 C 7,8 C 5,6 C 87 % 1014,2 hPa 0,0 l/m 0 min 0 min 0 W/m 0,0 km/h (0 Bft) 97,87 %
_ Min-Zeit 06:34 04:36 04:36 18:30 00:02 - - - - 06:28 21:18
Minimum _ 5,3 C 5,0 C 2,8 C 64 % 1011,4 hPa - - - - 0,0 km/h (0 Bft) 55,56 %
_ Max-Zeit 18:32 18:38 13:38 11:06 23:58 04:46 18:08 04:26 14:02 00:30 00:38
Maximum _ 13,7 C 20,0 C 17,8 C 96 % 1014,2 hPa 0,2 l/m 4 min 2 min 1100 W/m 19,3 km/h
SO (3 Bft)
100,00 %
Durchschnitt _ 8,4 C 8,6 C 6,2 C 84 % 1012,9 hPa #0,6 l/m #2:42 h #44 min. 195 W/m 5,7 km/h (1 Bft) 97,20 %
© 2021 W. Hausmann